Time,TemperatureF,DewpointF,PressureIn,WindDirection,WindDirectionDegrees,WindSpeedMPH,WindSpeedGustMPH,Humidity,HourlyPrecipIn,Conditions,Clouds,dailyrainin,SoftwareType,DateUTC
2013-01-28 00:01:00,28.2,22.0,29.62,ESE,112,0.0,1.3,77,0.00,,,0.00,VWS V14.01,2013-01-28 06:01:00,
2013-01-28 00:03:00,28.2,22.0,29.62,ESE,112,0.0,1.3,77,0.00,,,0.00,VWS V14.01,2013-01-28 06:03:00,
2013-01-28 00:05:00,28.2,22.0,29.62,ESE,112,0.0,1.3,77,0.00,,,0.00,VWS V14.01,2013-01-28 06:05:00,
2013-01-28 00:07:00,28.0,21.8,29.62,ESE,112,4.7,4.7,77,0.00,,,0.00,VWS V14.01,2013-01-28 06:07:00,
2013-01-28 00:09:00,28.0,21.8,29.62,ESE,112,0.0,1.6,77,0.00,,,0.00,VWS V14.01,2013-01-28 06:09:00,
2013-01-28 00:11:00,28.0,21.8,29.62,ESE,112,0.0,1.6,77,0.00,,,0.00,VWS V14.01,2013-01-28 06:11:00,
2013-01-28 00:13:00,27.9,21.6,29.62,ESE,112,0.0,1.6,77,0.00,,,0.00,VWS V14.01,2013-01-28 06:13:00,
2013-01-28 00:15:00,27.9,21.6,29.62,ESE,112,0.0,1.6,77,0.00,,,0.00,VWS V14.01,2013-01-28 06:15:00,
2013-01-28 00:17:00,27.9,21.6,29.62,ESE,112,0.0,1.6,77,0.00,,,0.00,VWS V14.01,2013-01-28 06:17:00,
2013-01-28 00:19:00,27.9,21.6,29.59,ESE,112,0.0,1.6,77,0.00,,,0.00,VWS V14.01,2013-01-28 06:19:00,
2013-01-28 00:21:00,27.9,21.6,29.59,ESE,112,0.0,1.6,77,0.00,,,0.00,VWS V14.01,2013-01-28 06:21:00,
2013-01-28 00:23:00,27.9,21.9,29.65,ESE,112,0.0,0.0,78,0.00,,,0.00,VWS V14.01,2013-01-28 06:23:00,
2013-01-28 00:25:00,27.9,21.6,29.59,ESE,112,0.0,1.6,77,0.00,,,0.00,VWS V14.01,2013-01-28 06:25:00,
2013-01-28 00:27:00,27.9,21.6,29.59,ESE,112,0.0,1.6,77,0.00,,,0.00,VWS V14.01,2013-01-28 06:27:00,
2013-01-28 00:29:00,27.9,21.6,29.59,ESE,112,0.0,1.6,77,0.00,,,0.00,VWS V14.01,2013-01-28 06:29:00,
2013-01-28 00:31:00,27.9,21.6,29.59,ESE,112,0.0,1.6,77,0.00,,,0.00,VWS V14.01,2013-01-28 06:31:00,
2013-01-28 00:33:00,27.9,21.9,29.59,ESE,112,0.0,1.6,78,0.00,,,0.00,VWS V14.01,2013-01-28 06:33:00,
2013-01-28 00:35:00,27.9,21.9,29.65,ESE,112,0.0,1.6,78,0.00,,,0.00,VWS V14.01,2013-01-28 06:35:00,
2013-01-28 00:37:00,27.9,21.9,29.65,ESE,112,0.0,1.6,78,0.00,,,0.00,VWS V14.01,2013-01-28 06:37:00,
2013-01-28 00:39:00,27.9,21.9,29.65,ESE,112,0.0,1.6,78,0.00,,,0.00,VWS V14.01,2013-01-28 06:39:00,
2013-01-28 00:41:00,27.9,21.9,29.65,ESE,112,0.0,1.6,78,0.00,,,0.00,VWS V14.01,2013-01-28 06:41:00,
2013-01-28 00:43:00,27.9,21.6,29.65,ESE,112,0.0,1.6,77,0.00,,,0.00,VWS V14.01,2013-01-28 06:43:00,
2013-01-28 00:45:00,27.9,21.6,29.65,ESE,112,0.0,1.6,77,0.00,,,0.00,VWS V14.01,2013-01-28 06:45:00,
2013-01-28 00:47:00,27.9,21.6,29.65,ESE,112,0.0,1.6,77,0.00,,,0.00,VWS V14.01,2013-01-28 06:47:00,
2013-01-28 00:49:00,27.9,21.6,29.62,ESE,112,0.0,0.0,77,0.00,,,0.00,VWS V14.01,2013-01-28 06:49:00,
2013-01-28 00:51:00,27.9,21.6,29.62,ESE,112,0.0,0.0,77,0.00,,,0.00,VWS V14.01,2013-01-28 06:51:00,
2013-01-28 00:53:00,27.9,21.6,29.62,ESE,112,0.0,0.0,77,0.00,,,0.00,VWS V14.01,2013-01-28 06:53:00,
2013-01-28 00:55:00,27.9,21.9,29.62,ESE,112,0.0,0.0,78,0.00,,,0.00,VWS V14.01,2013-01-28 06:55:00,
2013-01-28 00:57:00,27.9,21.9,29.62,ESE,112,0.0,0.0,78,0.00,,,0.00,VWS V14.01,2013-01-28 06:57:00,
2013-01-28 00:59:00,27.9,21.9,29.62,ESE,112,0.0,0.0,78,0.00,,,0.00,VWS V14.01,2013-01-28 06:59:00,
2013-01-28 01:01:00,27.9,21.9,29.62,ESE,112,0.0,0.0,78,0.00,,,0.00,VWS V14.01,2013-01-28 07:01:00,
2013-01-28 01:03:00,27.9,21.9,29.62,ESE,112,0.0,0.0,78,0.00,,,0.00,VWS V14.01,2013-01-28 07:03:00,
2013-01-28 01:05:00,27.9,21.9,29.65,ESE,112,0.0,0.0,78,0.00,,,0.00,VWS V14.01,2013-01-28 07:05:00,
2013-01-28 01:07:00,27.7,21.7,29.65,ESE,112,0.0,0.0,78,0.00,,,0.00,VWS V14.01,2013-01-28 07:07:00,
2013-01-28 01:09:00,27.7,21.7,29.65,ESE,112,0.0,0.0,78,0.00,,,0.00,VWS V14.01,2013-01-28 07:09:00,
2013-01-28 01:11:00,27.9,21.9,29.65,ESE,112,0.0,0.0,78,0.00,,,0.00,VWS V14.01,2013-01-28 07:11:00,
2013-01-28 01:13:00,27.7,21.7,29.65,ESE,112,0.0,0.0,78,0.00,,,0.00,VWS V14.01,2013-01-28 07:13:00,
2013-01-28 01:15:00,27.7,21.7,29.65,ESE,112,0.0,0.0,78,0.00,,,0.00,VWS V14.01,2013-01-28 07:15:00,
2013-01-28 01:17:00,27.7,21.7,29.65,ESE,112,0.0,0.0,78,0.00,,,0.00,VWS V14.01,2013-01-28 07:17:00,
2013-01-28 01:19:00,27.7,21.7,29.65,ESE,112,0.0,0.0,78,0.00,,,0.00,VWS V14.01,2013-01-28 07:19:00,
2013-01-28 01:21:00,27.7,21.7,29.65,ESE,112,0.0,0.0,78,0.00,,,0.00,VWS V14.01,2013-01-28 07:21:00,
2013-01-28 01:23:00,27.9,21.9,29.65,ESE,112,0.0,0.0,78,0.00,,,0.00,VWS V14.01,2013-01-28 07:23:00,
2013-01-28 01:25:00,27.9,21.9,29.65,ESE,112,0.0,0.0,78,0.00,,,0.00,VWS V14.01,2013-01-28 07:25:00,
2013-01-28 01:27:00,27.9,22.2,29.65,ESE,112,0.0,0.0,79,0.00,,,0.00,VWS V14.01,2013-01-28 07:27:00,
2013-01-28 01:29:00,27.9,22.2,29.65,ESE,112,0.0,0.0,79,0.00,,,0.00,VWS V14.01,2013-01-28 07:29:00,
2013-01-28 01:31:00,27.9,22.2,29.65,ESE,112,0.0,0.0,79,0.00,,,0.00,VWS V14.01,2013-01-28 07:31:00,
2013-01-28 01:33:00,27.9,22.2,29.65,ESE,112,0.0,0.0,79,0.00,,,0.00,VWS V14.01,2013-01-28 07:33:00,
2013-01-28 01:35:00,27.9,22.2,29.65,ESE,112,0.0,0.0,79,0.00,,,0.00,VWS V14.01,2013-01-28 07:35:00,
2013-01-28 01:37:00,27.9,21.9,29.65,ESE,112,0.0,0.0,78,0.00,,,0.00,VWS V14.01,2013-01-28 07:37:00,
2013-01-28 01:39:00,27.9,21.9,29.65,ESE,112,0.0,0.0,78,0.00,,,0.00,VWS V14.01,2013-01-28 07:39:00,
2013-01-28 01:41:00,27.9,21.9,29.65,ESE,112,0.0,0.0,78,0.00,,,0.00,VWS V14.01,2013-01-28 07:41:00,
2013-01-28 01:43:00,27.9,21.9,29.65,ESE,112,0.0,0.0,78,0.00,,,0.00,VWS V14.01,2013-01-28 07:43:00,
2013-01-28 01:45:00,27.9,21.9,29.65,ESE,112,0.0,0.0,78,0.00,,,0.00,VWS V14.01,2013-01-28 07:45:00,
2013-01-28 01:47:00,27.9,21.9,29.65,ESE,112,0.0,0.0,78,0.00,,,0.00,VWS V14.01,2013-01-28 07:47:00,
2013-01-28 01:49:00,27.9,21.9,29.65,ESE,112,0.0,0.0,78,0.00,,,0.00,VWS V14.01,2013-01-28 07:49:00,
2013-01-28 01:51:00,27.9,21.9,29.65,ESE,112,0.0,0.0,78,0.00,,,0.00,VWS V14.01,2013-01-28 07:51:00,
2013-01-28 01:53:00,27.9,21.9,29.65,ESE,112,0.0,0.0,78,0.00,,,0.00,VWS V14.01,2013-01-28 07:53:00,
2013-01-28 01:55:00,27.9,21.9,29.65,ESE,112,0.0,0.0,78,0.00,,,0.00,VWS V14.01,2013-01-28 07:55:00,
2013-01-28 01:57:00,27.9,21.9,29.65,ESE,112,0.0,0.0,78,0.00,,,0.00,VWS V14.01,2013-01-28 07:57:00,
2013-01-28 01:59:00,27.9,21.9,29.65,ESE,112,0.0,0.0,78,0.00,,,0.00,VWS V14.01,2013-01-28 07:59:00,
2013-01-28 02:01:00,27.9,21.9,29.65,ESE,112,0.0,0.0,78,0.00,,,0.00,VWS V14.01,2013-01-28 08:01:00,
2013-01-28 02:03:00,27.9,21.9,29.65,ESE,112,0.0,0.0,78,0.00,,,0.00,VWS V14.01,2013-01-28 08:03:00,
2013-01-28 02:05:00,27.9,21.9,29.65,ESE,112,0.0,0.0,78,0.00,,,0.00,VWS V14.01,2013-01-28 08:05:00,
2013-01-28 02:07:00,27.9,21.9,29.65,ESE,112,0.0,0.0,78,0.00,,,0.00,VWS V14.01,2013-01-28 08:07:00,
2013-01-28 02:09:00,27.9,22.2,29.65,ESE,112,0.0,0.0,79,0.00,,,0.00,VWS V14.01,2013-01-28 08:09:00,
2013-01-28 02:11:00,27.9,22.2,29.65,ESE,112,0.0,0.0,79,0.00,,,0.00,VWS V14.01,2013-01-28 08:11:00,
2013-01-28 02:13:00,27.7,22.0,29.65,ESE,112,0.0,0.0,79,0.00,,,0.00,VWS V14.01,2013-01-28 08:13:00,
2013-01-28 02:15:00,27.7,22.0,29.65,ESE,112,0.0,0.0,79,0.00,,,0.00,VWS V14.01,2013-01-28 08:15:00,
2013-01-28 02:17:00,27.7,22.0,29.65,ESE,112,0.0,0.0,79,0.00,,,0.00,VWS V14.01,2013-01-28 08:17:00,
2013-01-28 02:19:00,27.7,22.0,29.65,ESE,112,0.0,0.0,79,0.00,,,0.00,VWS V14.01,2013-01-28 08:19:00,
2013-01-28 02:21:00,27.7,22.0,29.65,ESE,112,0.0,0.0,79,0.00,,,0.00,VWS V14.01,2013-01-28 08:21:00,
2013-01-28 02:23:00,27.7,22.0,29.65,ESE,112,0.0,0.0,79,0.00,,,0.00,VWS V14.01,2013-01-28 08:23:00,
2013-01-28 02:25:00,27.7,22.0,29.65,ESE,112,0.0,0.0,79,0.00,,,0.00,VWS V14.01,2013-01-28 08:25:00,
2013-01-28 02:27:00,27.7,22.0,29.65,ESE,112,0.0,0.0,79,0.00,,,0.00,VWS V14.01,2013-01-28 08:27:00,
2013-01-28 02:29:00,27.7,22.0,29.65,ESE,112,0.0,0.0,79,0.00,,,0.00,VWS V14.01,2013-01-28 08:29:00,
2013-01-28 02:31:00,27.7,22.0,29.65,ESE,112,0.0,0.0,79,0.00,,,0.00,VWS V14.01,2013-01-28 08:31:00,
2013-01-28 02:33:00,27.7,22.0,29.65,ESE,112,0.0,0.0,79,0.00,,,0.00,VWS V14.01,2013-01-28 08:33:00,
2013-01-28 02:35:00,27.7,22.0,29.65,ESE,112,0.0,0.0,79,0.00,,,0.00,VWS V14.01,2013-01-28 08:35:00,
2013-01-28 02:37:00,27.7,22.0,29.65,ESE,112,0.0,0.0,79,0.00,,,0.00,VWS V14.01,2013-01-28 08:37:00,
2013-01-28 02:39:00,27.7,22.0,29.65,ESE,112,0.0,0.0,79,0.00,,,0.00,VWS V14.01,2013-01-28 08:39:00,
2013-01-28 02:41:00,27.7,22.0,29.65,ESE,112,0.0,0.0,79,0.00,,,0.00,VWS V14.01,2013-01-28 08:41:00,
2013-01-28 02:43:00,27.7,21.7,29.65,ESE,112,0.0,0.0,78,0.00,,,0.00,VWS V14.01,2013-01-28 08:43:00,
2013-01-28 02:45:00,27.9,21.9,29.65,ESE,112,0.0,0.0,78,0.00,,,0.00,VWS V14.01,2013-01-28 08:45:00,
2013-01-28 02:47:00,27.9,21.9,29.65,ESE,112,0.0,0.0,78,0.00,,,0.00,VWS V14.01,2013-01-28 08:47:00,
2013-01-28 02:49:00,27.9,21.9,29.65,ESE,112,0.0,0.0,78,0.00,,,0.00,VWS V14.01,2013-01-28 08:49:00,
2013-01-28 02:51:00,27.7,21.7,29.65,ESE,112,0.0,0.0,78,0.00,,,0.00,VWS V14.01,2013-01-28 08:51:00,
2013-01-28 02:53:00,27.9,21.9,29.65,ESE,112,0.0,0.0,78,0.00,,,0.00,VWS V14.01,2013-01-28 08:53:00,
2013-01-28 02:55:00,27.9,21.9,29.65,ESE,112,0.0,0.0,78,0.00,,,0.00,VWS V14.01,2013-01-28 08:55:00,
2013-01-28 02:57:00,27.9,21.9,29.65,ESE,112,0.0,0.0,78,0.00,,,0.00,VWS V14.01,2013-01-28 08:57:00,
2013-01-28 02:59:00,27.9,21.9,29.65,ESE,112,0.0,0.0,78,0.00,,,0.00,VWS V14.01,2013-01-28 08:59:00,
2013-01-28 03:01:00,27.7,22.0,29.65,ESE,112,0.0,0.0,79,0.00,,,0.00,VWS V14.01,2013-01-28 09:01:00,
2013-01-28 03:03:00,27.9,22.2,29.65,ESE,112,0.0,0.0,79,0.00,,,0.00,VWS V14.01,2013-01-28 09:03:00,
2013-01-28 03:05:00,27.9,22.2,29.65,ESE,112,0.0,0.0,79,0.00,,,0.00,VWS V14.01,2013-01-28 09:05:00,
2013-01-28 03:07:00,27.7,22.0,29.65,ESE,112,0.0,0.0,79,0.00,,,0.00,VWS V14.01,2013-01-28 09:07:00,
2013-01-28 03:09:00,27.9,22.2,29.65,ESE,112,0.0,0.0,79,0.00,,,0.00,VWS V14.01,2013-01-28 09:09:00,
2013-01-28 03:11:00,27.7,22.0,29.65,ESE,112,0.0,0.0,79,0.00,,,0.00,VWS V14.01,2013-01-28 09:11:00,
2013-01-28 03:13:00,27.7,22.0,29.65,ESE,112,0.0,0.0,79,0.00,,,0.00,VWS V14.01,2013-01-28 09:13:00,
2013-01-28 03:15:00,27.7,22.0,29.65,ESE,112,0.0,0.0,79,0.00,,,0.00,VWS V14.01,2013-01-28 09:15:00,
2013-01-28 03:17:00,27.7,22.0,29.65,ESE,112,0.0,0.0,79,0.00,,,0.00,VWS V14.01,2013-01-28 09:17:00,
2013-01-28 03:19:00,27.7,22.0,29.65,ESE,112,0.0,0.0,79,0.00,,,0.00,VWS V14.01,2013-01-28 09:19:00,
2013-01-28 03:21:00,27.7,22.0,29.65,ESE,112,0.0,0.0,79,0.00,,,0.00,VWS V14.01,2013-01-28 09:21:00,
2013-01-28 03:23:00,27.7,22.0,29.65,ESE,112,0.0,0.0,79,0.00,,,0.00,VWS V14.01,2013-01-28 09:23:00,
2013-01-28 03:25:00,27.7,22.0,29.65,ESE,112,0.0,0.0,79,0.00,,,0.00,VWS V14.01,2013-01-28 09:25:00,
2013-01-28 03:27:00,27.7,22.0,29.65,ESE,112,0.0,0.0,79,0.00,,,0.00,VWS V14.01,2013-01-28 09:27:00,
2013-01-28 03:29:00,27.7,22.0,29.65,ESE,112,0.0,0.0,79,0.00,,,0.00,VWS V14.01,2013-01-28 09:29:00,
2013-01-28 03:31:00,27.7,22.0,29.65,ESE,112,0.0,0.0,79,0.00,,,0.00,VWS V14.01,2013-01-28 09:31:00,
2013-01-28 03:33:00,27.9,22.5,29.65,ESE,112,0.0,0.0,80,0.00,,,0.00,VWS V14.01,2013-01-28 09:33:00,
2013-01-28 03:35:00,27.7,22.0,29.62,ESE,112,0.0,0.0,79,0.00,,,0.00,VWS V14.01,2013-01-28 09:35:00,
2013-01-28 03:37:00,27.9,22.2,29.62,ESE,112,0.0,0.0,79,0.00,,,0.00,VWS V14.01,2013-01-28 09:37:00,
2013-01-28 03:39:00,27.9,22.2,29.62,ESE,112,0.0,0.0,79,0.00,,,0.00,VWS V14.01,2013-01-28 09:39:00,
2013-01-28 03:41:00,27.9,22.2,29.62,ESE,112,0.0,0.0,79,0.00,,,0.00,VWS V14.01,2013-01-28 09:41:00,
2013-01-28 03:43:00,27.9,22.2,29.62,ESE,112,0.0,0.0,79,0.00,,,0.00,VWS V14.01,2013-01-28 09:43:00,
2013-01-28 03:45:00,27.9,22.2,29.62,ESE,112,0.0,0.0,79,0.00,,,0.00,VWS V14.01,2013-01-28 09:45:00,
2013-01-28 03:47:00,27.9,22.2,29.62,ESE,112,0.0,0.0,79,0.00,,,0.00,VWS V14.01,2013-01-28 09:47:00,
2013-01-28 03:49:00,27.7,22.3,29.65,ESE,112,0.0,1.3,80,0.00,,,0.00,VWS V14.01,2013-01-28 09:49:00,
2013-01-28 03:51:00,27.9,22.2,29.65,ESE,112,0.0,0.0,79,0.00,,,0.00,VWS V14.01,2013-01-28 09:51:00,
2013-01-28 03:53:00,27.7,22.0,29.65,ESE,112,0.0,0.0,79,0.00,,,0.00,VWS V14.01,2013-01-28 09:53:00,
2013-01-28 03:55:00,27.7,22.3,29.65,ESE,112,0.0,1.3,80,0.00,,,0.00,VWS V14.01,2013-01-28 09:55:00,
2013-01-28 03:57:00,27.9,22.2,29.65,ESE,112,0.0,0.0,79,0.00,,,0.00,VWS V14.01,2013-01-28 09:57:00,
2013-01-28 03:59:00,27.9,22.2,29.65,ESE,112,0.0,0.0,79,0.00,,,0.00,VWS V14.01,2013-01-28 09:59:00,
2013-01-28 04:01:00,27.9,22.2,29.65,ESE,112,0.0,0.0,79,0.00,,,0.00,VWS V14.01,2013-01-28 10:01:00,
2013-01-28 04:03:00,27.9,22.2,29.65,ESE,112,0.0,0.0,79,0.00,,,0.00,VWS V14.01,2013-01-28 10:03:00,
2013-01-28 04:05:00,27.9,22.2,29.65,ESE,112,0.0,0.0,79,0.00,,,0.00,VWS V14.01,2013-01-28 10:05:00,
2013-01-28 04:07:00,27.9,22.2,29.65,ESE,112,0.0,0.0,79,0.00,,,0.00,VWS V14.01,2013-01-28 10:07:00,
2013-01-28 04:09:00,27.9,22.2,29.65,ESE,112,0.0,0.0,79,0.00,,,0.00,VWS V14.01,2013-01-28 10:09:00,
2013-01-28 04:11:00,27.9,22.5,29.65,ESE,112,0.0,1.3,80,0.00,,,0.00,VWS V14.01,2013-01-28 10:11:00,
2013-01-28 04:13:00,27.9,22.5,29.65,ESE,112,0.0,1.3,80,0.00,,,0.00,VWS V14.01,2013-01-28 10:13:00,
2013-01-28 04:15:00,27.9,22.5,29.65,ESE,112,0.0,1.3,80,0.00,,,0.00,VWS V14.01,2013-01-28 10:15:00,
2013-01-28 04:17:00,27.9,22.2,29.65,ESE,112,0.0,0.0,79,0.00,,,0.00,VWS V14.01,2013-01-28 10:17:00,
2013-01-28 04:19:00,27.9,22.2,29.65,ESE,112,0.0,0.0,79,0.00,,,0.00,VWS V14.01,2013-01-28 10:19:00,
2013-01-28 04:21:00,27.9,22.2,29.65,ESE,112,0.0,0.0,79,0.00,,,0.00,VWS V14.01,2013-01-28 10:21:00,
2013-01-28 04:23:00,27.9,22.2,29.65,ESE,112,0.0,0.0,79,0.00,,,0.00,VWS V14.01,2013-01-28 10:23:00,
2013-01-28 04:25:00,27.9,22.5,29.65,ESE,112,0.0,0.0,80,0.00,,,0.00,VWS V14.01,2013-01-28 10:25:00,
2013-01-28 04:27:00,27.9,22.5,29.65,ESE,112,0.0,0.0,80,0.00,,,0.00,VWS V14.01,2013-01-28 10:27:00,
2013-01-28 04:29:00,27.9,22.5,29.65,ESE,112,0.0,0.0,80,0.00,,,0.00,VWS V14.01,2013-01-28 10:29:00,
2013-01-28 04:31:00,27.9,22.5,29.65,ESE,112,0.0,0.0,80,0.00,,,0.00,VWS V14.01,2013-01-28 10:31:00,
2013-01-28 04:33:00,27.9,22.5,29.65,ESE,112,0.0,0.0,80,0.00,,,0.00,VWS V14.01,2013-01-28 10:33:00,
2013-01-28 04:35:00,27.9,22.5,29.62,ESE,112,0.0,0.0,80,0.00,,,0.00,VWS V14.01,2013-01-28 10:35:00,
2013-01-28 04:37:00,27.9,22.5,29.62,ESE,112,0.0,0.0,80,0.00,,,0.00,VWS V14.01,2013-01-28 10:37:00,
2013-01-28 04:39:00,27.9,22.8,29.62,ESE,112,4.0,4.0,81,0.00,,,0.00,VWS V14.01,2013-01-28 10:39:00,
2013-01-28 04:41:00,27.9,22.8,29.62,ESE,112,0.0,1.3,81,0.00,,,0.00,VWS V14.01,2013-01-28 10:41:00,
2013-01-28 04:43:00,27.9,22.8,29.62,ESE,112,0.0,1.3,81,0.00,,,0.00,VWS V14.01,2013-01-28 10:43:00,
2013-01-28 04:45:00,27.7,22.6,29.62,ESE,112,0.0,1.3,81,0.00,,,0.00,VWS V14.01,2013-01-28 10:45:00,
2013-01-28 04:47:00,27.7,22.6,29.62,ESE,112,0.0,1.3,81,0.00,,,0.00,VWS V14.01,2013-01-28 10:47:00,
2013-01-28 04:49:00,27.7,22.3,29.65,ESE,112,0.0,1.3,80,0.00,,,0.00,VWS V14.01,2013-01-28 10:49:00,
2013-01-28 04:51:00,27.7,22.3,29.65,ESE,112,0.0,1.3,80,0.00,,,0.00,VWS V14.01,2013-01-28 10:51:00,
2013-01-28 04:53:00,27.7,22.3,29.65,ESE,112,0.0,1.3,80,0.00,,,0.00,VWS V14.01,2013-01-28 10:53:00,
2013-01-28 04:55:00,27.7,22.3,29.65,ESE,112,0.0,1.3,80,0.00,,,0.00,VWS V14.01,2013-01-28 10:55:00,
2013-01-28 04:57:00,27.7,22.3,29.65,ESE,112,0.0,1.3,80,0.00,,,0.00,VWS V14.01,2013-01-28 10:57:00,
2013-01-28 04:59:00,27.7,22.3,29.65,ESE,112,0.0,1.3,80,0.00,,,0.00,VWS V14.01,2013-01-28 10:59:00,
2013-01-28 05:01:00,27.7,22.3,29.65,ESE,112,0.0,1.3,80,0.00,,,0.00,VWS V14.01,2013-01-28 11:01:00,
2013-01-28 05:03:00,27.9,22.5,29.65,ESE,112,0.0,1.3,80,0.00,,,0.00,VWS V14.01,2013-01-28 11:03:00,
2013-01-28 05:05:00,27.9,22.5,29.65,ESE,112,0.0,1.3,80,0.00,,,0.00,VWS V14.01,2013-01-28 11:05:00,
2013-01-28 05:07:00,27.9,22.5,29.65,ESE,112,0.0,1.3,80,0.00,,,0.00,VWS V14.01,2013-01-28 11:07:00,
2013-01-28 05:09:00,27.9,22.5,29.65,ESE,112,0.0,1.3,80,0.00,,,0.00,VWS V14.01,2013-01-28 11:09:00,
2013-01-28 05:11:00,27.9,22.5,29.65,ESE,112,0.0,1.3,80,0.00,,,0.00,VWS V14.01,2013-01-28 11:11:00,
2013-01-28 05:13:00,27.9,22.5,29.65,ESE,112,0.0,1.3,80,0.00,,,0.00,VWS V14.01,2013-01-28 11:13:00,
2013-01-28 05:15:00,27.9,22.5,29.65,ESE,112,0.0,1.3,80,0.00,,,0.00,VWS V14.01,2013-01-28 11:15:00,
2013-01-28 05:17:00,27.9,22.5,29.65,ESE,112,0.0,1.3,80,0.00,,,0.00,VWS V14.01,2013-01-28 11:17:00,
2013-01-28 05:19:00,27.9,22.5,29.65,ESE,112,0.0,0.0,80,0.00,,,0.00,VWS V14.01,2013-01-28 11:19:00,
2013-01-28 05:21:00,27.9,22.5,29.65,ESE,112,0.0,0.0,80,0.00,,,0.00,VWS V14.01,2013-01-28 11:21:00,
2013-01-28 05:23:00,27.9,22.5,29.65,ESE,112,0.0,0.0,80,0.00,,,0.00,VWS V14.01,2013-01-28 11:23:00,
2013-01-28 05:25:00,27.7,22.3,29.65,ESE,112,0.0,1.6,80,0.00,,,0.00,VWS V14.01,2013-01-28 11:25:00,
2013-01-28 05:27:00,27.9,22.5,29.65,ESE,112,0.0,0.0,80,0.00,,,0.00,VWS V14.01,2013-01-28 11:27:00,
2013-01-28 05:29:00,27.9,22.5,29.65,ESE,112,0.0,0.0,80,0.00,,,0.00,VWS V14.01,2013-01-28 11:29:00,
2013-01-28 05:31:00,27.9,22.5,29.65,ESE,112,0.0,0.0,80,0.00,,,0.00,VWS V14.01,2013-01-28 11:31:00,
2013-01-28 05:33:00,27.9,22.5,29.65,ESE,112,0.0,0.0,80,0.00,,,0.00,VWS V14.01,2013-01-28 11:33:00,
2013-01-28 05:35:00,27.9,22.5,29.65,ESE,112,0.0,0.0,80,0.00,,,0.00,VWS V14.01,2013-01-28 11:35:00,
2013-01-28 05:37:00,27.9,22.5,29.65,ESE,112,0.0,0.0,80,0.00,,,0.00,VWS V14.01,2013-01-28 11:37:00,
2013-01-28 05:39:00,27.9,22.5,29.65,ESE,112,0.0,0.0,80,0.00,,,0.00,VWS V14.01,2013-01-28 11:39:00,
2013-01-28 05:41:00,27.9,22.5,29.65,ESE,112,0.0,0.0,80,0.00,,,0.00,VWS V14.01,2013-01-28 11:41:00,
2013-01-28 05:43:00,27.9,22.5,29.65,ESE,112,4.7,4.7,80,0.00,,,0.00,VWS V14.01,2013-01-28 11:43:00,
2013-01-28 05:45:00,27.9,22.5,29.65,ESE,112,0.0,1.6,80,0.00,,,0.00,VWS V14.01,2013-01-28 11:45:00,
2013-01-28 05:47:00,27.9,22.5,29.65,ESE,112,0.0,1.6,80,0.00,,,0.00,VWS V14.01,2013-01-28 11:47:00,
2013-01-28 05:49:00,27.9,22.5,29.65,ESE,112,0.0,1.6,80,0.00,,,0.00,VWS V14.01,2013-01-28 11:49:00,
2013-01-28 05:51:00,27.9,22.5,29.65,ESE,112,0.0,1.6,80,0.00,,,0.00,VWS V14.01,2013-01-28 11:51:00,
2013-01-28 05:53:00,27.9,22.5,29.65,ESE,112,4.0,4.0,80,0.00,,,0.00,VWS V14.01,2013-01-28 11:53:00,
2013-01-28 05:55:00,27.9,22.5,29.65,ESE,112,0.0,1.6,80,0.00,,,0.00,VWS V14.01,2013-01-28 11:55:00,
2013-01-28 05:57:00,27.9,22.5,29.65,ESE,112,0.0,1.6,80,0.00,,,0.00,VWS V14.01,2013-01-28 11:57:00,
2013-01-28 05:59:00,27.9,22.5,29.65,ESE,112,0.0,1.6,80,0.00,,,0.00,VWS V14.01,2013-01-28 11:59:00,
2013-01-28 06:01:00,27.9,22.5,29.65,ESE,112,0.0,1.6,80,0.00,,,0.00,VWS V14.01,2013-01-28 12:01:00,
2013-01-28 06:03:00,27.9,22.5,29.65,ESE,112,0.0,1.6,80,0.00,,,0.00,VWS V14.01,2013-01-28 12:03:00,
2013-01-28 06:05:00,27.9,22.5,29.65,ESE,112,0.0,1.6,80,0.00,,,0.00,VWS V14.01,2013-01-28 12:05:00,
2013-01-28 06:07:00,27.9,22.5,29.65,ESE,112,0.0,1.6,80,0.00,,,0.00,VWS V14.01,2013-01-28 12:07:00,
2013-01-28 06:09:00,27.9,22.5,29.65,ESE,112,0.0,1.6,80,0.00,,,0.00,VWS V14.01,2013-01-28 12:09:00,
2013-01-28 06:11:00,27.9,22.5,29.65,ESE,112,0.0,1.6,80,0.00,,,0.00,VWS V14.01,2013-01-28 12:11:00,
2013-01-28 06:13:00,27.9,23.1,29.68,ESE,112,0.0,0.0,82,0.00,,,0.00,VWS V14.01,2013-01-28 12:13:00,
2013-01-28 06:15:00,27.9,22.5,29.65,ESE,112,0.0,1.6,80,0.00,,,0.00,VWS V14.01,2013-01-28 12:15:00,
2013-01-28 06:17:00,27.9,22.5,29.65,ESE,112,0.0,1.6,80,0.00,,,0.00,VWS V14.01,2013-01-28 12:17:00,
2013-01-28 06:19:00,27.9,22.5,29.65,ESE,112,0.0,1.6,80,0.00,,,0.00,VWS V14.01,2013-01-28 12:19:00,
2013-01-28 06:21:00,27.9,22.8,29.68,ESE,112,0.0,0.0,81,0.00,,,0.00,VWS V14.01,2013-01-28 12:21:00,
2013-01-28 06:23:00,27.7,22.3,29.65,ESE,112,0.0,1.6,80,0.00,,,0.00,VWS V14.01,2013-01-28 12:23:00,
2013-01-28 06:25:00,27.7,22.3,29.65,ESE,112,0.0,1.6,80,0.00,,,0.00,VWS V14.01,2013-01-28 12:25:00,
2013-01-28 06:27:00,27.7,22.3,29.65,ESE,112,0.0,1.3,80,0.00,,,0.00,VWS V14.01,2013-01-28 12:27:00,
2013-01-28 06:29:00,27.7,22.3,29.65,ESE,112,0.0,1.3,80,0.00,,,0.00,VWS V14.01,2013-01-28 12:29:00,
2013-01-28 06:31:00,27.7,22.3,29.65,ESE,112,0.0,1.3,80,0.00,,,0.00,VWS V14.01,2013-01-28 12:31:00,
2013-01-28 06:33:00,27.7,22.6,29.65,ESE,112,0.0,1.3,81,0.00,,,0.00,VWS V14.01,2013-01-28 12:33:00,
2013-01-28 06:35:00,27.7,22.6,29.65,ESE,112,0.0,1.3,81,0.00,,,0.00,VWS V14.01,2013-01-28 12:35:00,
2013-01-28 06:37:00,27.7,22.6,29.65,ESE,112,0.0,0.0,81,0.00,,,0.00,VWS V14.01,2013-01-28 12:37:00,
2013-01-28 06:39:00,27.7,22.6,29.65,ESE,112,0.0,0.0,81,0.00,,,0.00,VWS V14.01,2013-01-28 12:39:00,
2013-01-28 06:41:00,27.7,22.6,29.65,ESE,112,0.0,0.0,81,0.00,,,0.00,VWS V14.01,2013-01-28 12:41:00,
2013-01-28 06:43:00,27.9,22.8,29.65,ESE,112,0.0,0.0,81,0.00,,,0.00,VWS V14.01,2013-01-28 12:43:00,
2013-01-28 06:45:00,27.9,22.8,29.65,ESE,112,0.0,0.0,81,0.00,,,0.00,VWS V14.01,2013-01-28 12:45:00,
2013-01-28 06:47:00,27.9,22.8,29.65,ESE,112,0.0,0.0,81,0.00,,,0.00,VWS V14.01,2013-01-28 12:47:00,
2013-01-28 06:49:00,27.9,22.8,29.68,ESE,112,0.0,0.0,81,0.00,,,0.00,VWS V14.01,2013-01-28 12:49:00,
2013-01-28 06:51:00,27.9,22.8,29.68,ESE,112,0.0,0.0,81,0.00,,,0.00,VWS V14.01,2013-01-28 12:51:00,
2013-01-28 06:53:00,27.9,22.8,29.68,ESE,112,0.0,0.0,81,0.00,,,0.00,VWS V14.01,2013-01-28 12:53:00,
2013-01-28 06:55:00,27.9,23.1,29.68,ESE,112,0.0,0.0,82,0.00,,,0.00,VWS V14.01,2013-01-28 12:55:00,
2013-01-28 06:57:00,27.9,23.1,29.68,ESE,112,0.0,0.0,82,0.00,,,0.00,VWS V14.01,2013-01-28 12:57:00,
2013-01-28 06:59:00,27.9,23.1,29.68,ESE,112,0.0,0.0,82,0.00,,,0.00,VWS V14.01,2013-01-28 12:59:00,
2013-01-28 07:01:00,28.2,23.4,29.68,ESE,112,0.0,1.3,82,0.00,,,0.00,VWS V14.01,2013-01-28 13:01:00,
2013-01-28 07:03:00,27.9,23.1,29.68,ESE,112,0.0,0.0,82,0.00,,,0.00,VWS V14.01,2013-01-28 13:03:00,
2013-01-28 07:05:00,27.9,23.1,29.68,ESE,112,0.0,0.0,82,0.00,,,0.00,VWS V14.01,2013-01-28 13:05:00,
2013-01-28 07:07:00,27.9,23.1,29.68,ESE,112,0.0,0.0,82,0.00,,,0.00,VWS V14.01,2013-01-28 13:07:00,
2013-01-28 07:09:00,27.9,23.1,29.68,ESE,112,0.0,0.0,82,0.00,,,0.00,VWS V14.01,2013-01-28 13:09:00,
2013-01-28 07:11:00,27.9,23.1,29.68,ESE,112,0.0,0.0,82,0.00,,,0.00,VWS V14.01,2013-01-28 13:11:00,
2013-01-28 07:13:00,27.9,23.1,29.68,ESE,112,0.0,0.0,82,0.00,,,0.00,VWS V14.01,2013-01-28 13:13:00,
2013-01-28 07:15:00,27.9,23.1,29.68,ESE,112,0.0,0.0,82,0.00,,,0.00,VWS V14.01,2013-01-28 13:15:00,
2013-01-28 07:17:00,27.9,23.1,29.68,ESE,112,0.0,0.0,82,0.00,,,0.00,VWS V14.01,2013-01-28 13:17:00,
2013-01-28 07:19:00,27.9,23.1,29.68,ESE,112,0.0,0.0,82,0.00,,,0.00,VWS V14.01,2013-01-28 13:19:00,
2013-01-28 07:21:00,27.9,22.8,29.68,ESE,112,0.0,0.0,81,0.00,,,0.00,VWS V14.01,2013-01-28 13:21:00,
2013-01-28 07:23:00,27.9,22.8,29.68,ESE,112,0.0,0.0,81,0.00,,,0.00,VWS V14.01,2013-01-28 13:23:00,
2013-01-28 07:25:00,28.8,24.3,29.68,ESE,112,0.0,1.3,83,0.00,,,0.00,VWS V14.01,2013-01-28 13:25:00,
2013-01-28 07:27:00,28.8,24.3,29.68,ESE,112,0.0,0.0,83,0.00,,,0.00,VWS V14.01,2013-01-28 13:27:00,
2013-01-28 07:29:00,28.8,24.3,29.68,ESE,112,0.0,0.0,83,0.00,,,0.00,VWS V14.01,2013-01-28 13:29:00,
2013-01-28 07:31:00,27.9,23.1,29.68,ESE,112,0.0,0.0,82,0.00,,,0.00,VWS V14.01,2013-01-28 13:31:00,
2013-01-28 07:33:00,27.9,23.1,29.68,ESE,112,0.0,0.0,82,0.00,,,0.00,VWS V14.01,2013-01-28 13:33:00,
2013-01-28 07:35:00,27.9,23.1,29.68,ESE,112,0.0,0.0,82,0.00,,,0.00,VWS V14.01,2013-01-28 13:35:00,
2013-01-28 07:37:00,27.9,23.1,29.68,ESE,112,0.0,0.0,82,0.00,,,0.00,VWS V14.01,2013-01-28 13:37:00,
2013-01-28 07:39:00,27.9,23.1,29.68,ESE,112,0.0,0.0,82,0.00,,,0.00,VWS V14.01,2013-01-28 13:39:00,
2013-01-28 07:41:00,27.9,23.1,29.68,ESE,112,0.0,0.0,82,0.00,,,0.00,VWS V14.01,2013-01-28 13:41:00,
2013-01-28 07:43:00,27.9,23.1,29.68,ESE,112,0.0,0.0,82,0.00,,,0.00,VWS V14.01,2013-01-28 13:43:00,
2013-01-28 07:45:00,28.0,23.3,29.68,ESE,112,4.0,4.0,82,0.00,,,0.00,VWS V14.01,2013-01-28 13:45:00,
2013-01-28 07:47:00,28.0,23.3,29.68,ESE,112,0.0,1.3,82,0.00,,,0.00,VWS V14.01,2013-01-28 13:47:00,
2013-01-28 07:49:00,28.0,23.3,29.68,ESE,112,0.0,1.3,82,0.00,,,0.00,VWS V14.01,2013-01-28 13:49:00,
2013-01-28 07:51:00,28.0,23.3,29.68,ESE,112,0.0,1.3,82,0.00,,,0.00,VWS V14.01,2013-01-28 13:51:00,
2013-01-28 07:53:00,28.0,23.3,29.68,ESE,112,0.0,1.3,82,0.00,,,0.00,VWS V14.01,2013-01-28 13:53:00,
2013-01-28 07:55:00,28.0,23.3,29.68,ESE,112,0.0,1.3,82,0.00,,,0.00,VWS V14.01,2013-01-28 13:55:00,
2013-01-28 07:57:00,28.0,23.3,29.68,ESE,112,0.0,1.3,82,0.00,,,0.00,VWS V14.01,2013-01-28 13:57:00,
2013-01-28 07:59:00,28.0,23.3,29.68,ESE,112,0.0,1.3,82,0.00,,,0.00,VWS V14.01,2013-01-28 13:59:00,
2013-01-28 08:01:00,28.2,23.4,29.68,ESE,112,0.0,1.3,82,0.00,,,0.00,VWS V14.01,2013-01-28 14:01:00,
2013-01-28 08:03:00,28.2,23.4,29.68,ESE,112,0.0,1.3,82,0.00,,,0.00,VWS V14.01,2013-01-28 14:03:00,
2013-01-28 08:05:00,28.2,23.4,29.68,ESE,112,0.0,1.3,82,0.00,,,0.00,VWS V14.01,2013-01-28 14:05:00,
2013-01-28 08:07:00,28.2,23.4,29.68,ESE,112,0.0,1.3,82,0.00,,,0.00,VWS V14.01,2013-01-28 14:07:00,
2013-01-28 08:09:00,28.2,23.4,29.68,ESE,112,0.0,1.3,82,0.00,,,0.00,VWS V14.01,2013-01-28 14:09:00,
2013-01-28 08:10:00,30.4,25.0,29.68,ESE,112,0.0,2.2,80,0.00,,,0.00,VWS V14.01,2013-01-28 14:10:00,
2013-01-28 08:11:00,28.4,23.6,29.68,ESE,112,0.0,1.3,82,0.00,,,0.00,VWS V14.01,2013-01-28 14:11:00,
2013-01-28 08:12:00,30.6,25.4,29.68,ESE,112,0.0,2.2,81,0.00,,,0.00,VWS V14.01,2013-01-28 14:12:00,
2013-01-28 08:13:00,28.4,23.9,29.68,ESE,112,0.0,1.3,83,0.00,,,0.00,VWS V14.01,2013-01-28 14:13:00,
2013-01-28 08:14:00,30.6,25.4,29.68,ESE,112,0.0,2.2,81,0.00,,,0.00,VWS V14.01,2013-01-28 14:14:00,
2013-01-28 08:15:00,28.4,23.9,29.68,ESE,112,0.0,1.3,83,0.00,,,0.00,VWS V14.01,2013-01-28 14:15:00,
2013-01-28 08:16:00,30.9,25.8,29.68,ESE,112,0.0,2.2,81,0.00,,,0.00,VWS V14.01,2013-01-28 14:16:00,
2013-01-28 08:18:00,30.9,25.5,29.68,ESE,112,0.0,2.2,80,0.00,,,0.00,VWS V14.01,2013-01-28 14:18:00,
2013-01-28 08:19:00,28.6,24.1,29.68,ESE,112,0.0,1.3,83,0.00,,,0.00,VWS V14.01,2013-01-28 14:19:00,
2013-01-28 08:20:00,31.1,25.7,29.68,ESE,112,0.0,2.2,80,0.00,,,0.00,VWS V14.01,2013-01-28 14:20:00,
2013-01-28 08:21:00,28.6,24.1,29.68,ESE,112,0.0,1.3,83,0.00,,,0.00,VWS V14.01,2013-01-28 14:21:00,
2013-01-28 08:22:00,31.1,25.7,29.68,ESE,112,0.0,2.2,80,0.00,,,0.00,VWS V14.01,2013-01-28 14:22:00,
2013-01-28 08:23:00,28.6,24.1,29.68,ESE,112,0.0,1.3,83,0.00,,,0.00,VWS V14.01,2013-01-28 14:23:00,
2013-01-28 08:25:00,28.8,24.3,29.68,ESE,112,0.0,1.3,83,0.00,,,0.00,VWS V14.01,2013-01-28 14:25:00,
2013-01-28 08:26:00,31.5,26.0,29.68,ESE,112,0.0,2.2,80,0.00,,,0.00,VWS V14.01,2013-01-28 14:26:00,
2013-01-28 08:27:00,28.8,24.3,29.68,ESE,112,0.0,0.0,83,0.00,,,0.00,VWS V14.01,2013-01-28 14:27:00,
2013-01-28 08:28:00,31.6,26.2,29.68,ESE,112,0.0,2.2,80,0.00,,,0.00,VWS V14.01,2013-01-28 14:28:00,
2013-01-28 08:29:00,28.8,24.3,29.68,ESE,112,0.0,0.0,83,0.00,,,0.00,VWS V14.01,2013-01-28 14:29:00,
2013-01-28 08:30:00,31.8,26.1,29.68,ESE,112,4.0,4.0,79,0.00,,,0.00,VWS V14.01,2013-01-28 14:30:00,
2013-01-28 08:31:00,28.9,24.4,29.68,ESE,112,0.0,0.0,83,0.00,,,0.00,VWS V14.01,2013-01-28 14:31:00,
2013-01-28 08:32:00,32.0,26.2,29.68,ESE,112,0.0,2.2,79,0.00,,,0.00,VWS V14.01,2013-01-28 14:32:00,
2013-01-28 08:33:00,28.9,24.4,29.68,ESE,112,0.0,0.0,83,0.00,,,0.00,VWS V14.01,2013-01-28 14:33:00,
2013-01-28 08:34:00,32.2,26.4,29.68,ESE,112,0.0,2.2,79,0.00,,,0.00,VWS V14.01,2013-01-28 14:34:00,
2013-01-28 08:35:00,28.9,24.1,29.68,ESE,112,4.7,4.7,82,0.00,,,0.00,VWS V14.01,2013-01-28 14:35:00,
2013-01-28 08:37:00,28.9,24.1,29.68,ESE,112,0.0,1.6,82,0.00,,,0.00,VWS V14.01,2013-01-28 14:37:00,
2013-01-28 08:38:00,32.4,26.3,29.68,ESE,112,0.0,2.2,78,0.00,,,0.00,VWS V14.01,2013-01-28 14:38:00,
2013-01-28 08:39:00,28.9,24.1,29.68,ESE,112,0.0,1.6,82,0.00,,,0.00,VWS V14.01,2013-01-28 14:39:00,
2013-01-28 08:40:00,32.4,26.3,29.68,ESE,112,0.0,1.3,78,0.00,,,0.00,VWS V14.01,2013-01-28 14:40:00,
2013-01-28 08:41:00,29.1,24.3,29.68,ESE,112,0.0,1.6,82,0.00,,,0.00,VWS V14.01,2013-01-28 14:41:00,
2013-01-28 08:42:00,32.4,26.0,29.68,ESE,112,0.0,1.3,77,0.00,,,0.00,VWS V14.01,2013-01-28 14:42:00,
2013-01-28 08:43:00,29.1,24.3,29.68,ESE,112,0.0,1.6,82,0.00,,,0.00,VWS V14.01,2013-01-28 14:43:00,
2013-01-28 08:44:00,32.4,26.0,29.68,ESE,112,0.0,1.3,77,0.00,,,0.00,VWS V14.01,2013-01-28 14:44:00,
2013-01-28 08:45:00,29.3,24.5,29.68,ESE,112,0.0,1.6,82,0.00,,,0.00,VWS V14.01,2013-01-28 14:45:00,
2013-01-28 08:46:00,32.5,26.1,29.68,ESE,112,0.0,1.3,77,0.00,,,0.00,VWS V14.01,2013-01-28 14:46:00,
2013-01-28 08:47:00,29.3,24.5,29.68,ESE,112,0.0,1.6,82,0.00,,,0.00,VWS V14.01,2013-01-28 14:47:00,
2013-01-28 08:48:00,32.5,26.1,29.68,ESE,112,0.0,1.3,77,0.00,,,0.00,VWS V14.01,2013-01-28 14:48:00,
2013-01-28 08:49:00,29.3,24.5,29.68,ESE,112,4.7,4.7,82,0.00,,,0.00,VWS V14.01,2013-01-28 14:49:00,
2013-01-28 08:50:00,32.7,26.3,29.68,ESE,112,0.0,1.3,77,0.00,,,0.00,VWS V14.01,2013-01-28 14:50:00,
2013-01-28 08:51:00,29.3,24.5,29.68,ESE,112,4.7,4.7,82,0.00,,,0.00,VWS V14.01,2013-01-28 14:51:00,
2013-01-28 08:52:00,33.1,26.4,29.68,ESE,112,0.0,1.3,76,0.00,,,0.00,VWS V14.01,2013-01-28 14:52:00,
2013-01-28 08:54:00,32.9,26.2,29.68,ESE,112,0.0,1.3,76,0.00,,,0.00,VWS V14.01,2013-01-28 14:54:00,
2013-01-28 08:55:00,29.3,24.5,29.68,ESE,112,6.7,6.7,82,0.00,,,0.00,VWS V14.01,2013-01-28 14:55:00,
2013-01-28 08:56:00,32.9,25.9,29.68,ESE,112,0.0,1.3,75,0.00,,,0.00,VWS V14.01,2013-01-28 14:56:00,
2013-01-28 08:57:00,29.5,24.7,29.68,ESE,112,0.0,2.2,82,0.00,,,0.00,VWS V14.01,2013-01-28 14:57:00,
2013-01-28 08:58:00,32.9,25.5,29.68,ESE,112,0.0,1.3,74,0.00,,,0.00,VWS V14.01,2013-01-28 14:58:00,
2013-01-28 09:00:00,32.9,25.5,29.68,ESE,112,0.0,1.3,74,0.00,,,0.00,VWS V14.01,2013-01-28 15:00:00,
2013-01-28 09:01:00,29.7,24.9,29.68,ESE,112,0.0,2.2,82,0.00,,,0.00,VWS V14.01,2013-01-28 15:01:00,
2013-01-28 09:02:00,32.9,25.5,29.68,ESE,112,0.0,1.3,74,0.00,,,0.00,VWS V14.01,2013-01-28 15:02:00,
2013-01-28 09:03:00,29.8,25.0,29.68,ESE,112,0.0,2.2,82,0.00,,,0.00,VWS V14.01,2013-01-28 15:03:00,
2013-01-28 09:04:00,32.9,25.2,29.68,ESE,112,0.0,1.3,73,0.00,,,0.00,VWS V14.01,2013-01-28 15:04:00,
2013-01-28 09:05:00,29.8,25.0,29.68,ESE,112,0.0,2.2,82,0.00,,,0.00,VWS V14.01,2013-01-28 15:05:00,
2013-01-28 09:06:00,32.9,25.2,29.68,ESE,112,6.7,6.7,73,0.00,,,0.00,VWS V14.01,2013-01-28 15:06:00,
2013-01-28 09:07:00,30.0,25.2,29.68,ESE,112,0.0,2.2,82,0.00,,,0.00,VWS V14.01,2013-01-28 15:07:00,
2013-01-28 09:08:00,32.7,25.0,29.68,ESE,112,0.0,2.2,73,0.00,,,0.00,VWS V14.01,2013-01-28 15:08:00,
2013-01-28 09:09:00,30.0,25.2,29.68,ESE,112,0.0,2.2,82,0.00,,,0.00,VWS V14.01,2013-01-28 15:09:00,
2013-01-28 09:10:00,30.4,25.0,29.68,ESE,112,0.0,2.2,80,0.00,,,0.00,VWS V14.01,2013-01-28 15:10:00,
2013-01-28 09:12:00,30.6,25.4,29.68,ESE,112,0.0,2.2,81,0.00,,,0.00,VWS V14.01,2013-01-28 15:12:00,
2013-01-28 09:14:00,30.6,25.4,29.68,ESE,112,0.0,2.2,81,0.00,,,0.00,VWS V14.01,2013-01-28 15:14:00,
2013-01-28 09:16:00,30.9,25.8,29.68,ESE,112,0.0,2.2,81,0.00,,,0.00,VWS V14.01,2013-01-28 15:16:00,
2013-01-28 09:18:00,30.9,25.5,29.68,ESE,112,0.0,2.2,80,0.00,,,0.00,VWS V14.01,2013-01-28 15:18:00,
2013-01-28 09:20:00,31.1,25.7,29.68,ESE,112,0.0,2.2,80,0.00,,,0.00,VWS V14.01,2013-01-28 15:20:00,
2013-01-28 09:22:00,31.1,25.7,29.68,ESE,112,0.0,2.2,80,0.00,,,0.00,VWS V14.01,2013-01-28 15:22:00,
2013-01-28 09:24:00,33.1,25.0,29.71,ESE,112,0.0,2.2,72,0.00,,,0.00,VWS V14.01,2013-01-28 15:24:00,
2013-01-28 09:26:00,31.5,26.0,29.68,ESE,112,0.0,2.2,80,0.00,,,0.00,VWS V14.01,2013-01-28 15:26:00,
2013-01-28 09:28:00,31.6,26.2,29.68,ESE,112,0.0,2.2,80,0.00,,,0.00,VWS V14.01,2013-01-28 15:28:00,
2013-01-28 09:30:00,31.8,26.1,29.68,ESE,112,4.0,4.0,79,0.00,,,0.00,VWS V14.01,2013-01-28 15:30:00,
2013-01-28 09:32:00,32.0,26.2,29.68,ESE,112,0.0,2.2,79,0.00,,,0.00,VWS V14.01,2013-01-28 15:32:00,
2013-01-28 09:34:00,32.2,26.4,29.68,ESE,112,0.0,2.2,79,0.00,,,0.00,VWS V14.01,2013-01-28 15:34:00,
2013-01-28 09:36:00,34.3,25.9,29.71,ESE,112,2.7,2.7,71,0.00,,,0.00,VWS V14.01,2013-01-28 15:36:00,
2013-01-28 09:38:00,32.4,26.3,29.68,ESE,112,0.0,2.2,78,0.00,,,0.00,VWS V14.01,2013-01-28 15:38:00,
2013-01-28 09:40:00,32.4,26.3,29.68,ESE,112,0.0,1.3,78,0.00,,,0.00,VWS V14.01,2013-01-28 15:40:00,
2013-01-28 09:42:00,32.4,26.0,29.68,ESE,112,0.0,1.3,77,0.00,,,0.00,VWS V14.01,2013-01-28 15:42:00,
2013-01-28 09:44:00,32.4,26.0,29.68,ESE,112,0.0,1.3,77,0.00,,,0.00,VWS V14.01,2013-01-28 15:44:00,
2013-01-28 09:46:00,32.5,26.1,29.68,ESE,112,0.0,1.3,77,0.00,,,0.00,VWS V14.01,2013-01-28 15:46:00,
2013-01-28 09:48:00,32.5,26.1,29.68,ESE,112,0.0,1.3,77,0.00,,,0.00,VWS V14.01,2013-01-28 15:48:00,
2013-01-28 09:50:00,32.7,26.3,29.68,ESE,112,0.0,1.3,77,0.00,,,0.00,VWS V14.01,2013-01-28 15:50:00,
2013-01-28 09:52:00,33.1,26.4,29.68,ESE,112,0.0,1.3,76,0.00,,,0.00,VWS V14.01,2013-01-28 15:52:00,
2013-01-28 09:54:00,32.9,26.2,29.68,ESE,112,0.0,1.3,76,0.00,,,0.00,VWS V14.01,2013-01-28 15:54:00,
2013-01-28 09:56:00,32.9,25.9,29.68,ESE,112,0.0,1.3,75,0.00,,,0.00,VWS V14.01,2013-01-28 15:56:00,
2013-01-28 09:58:00,32.9,25.5,29.68,ESE,112,0.0,1.3,74,0.00,,,0.00,VWS V14.01,2013-01-28 15:58:00,
2013-01-28 10:00:00,32.9,25.5,29.68,ESE,112,0.0,1.3,74,0.00,,,0.00,VWS V14.01,2013-01-28 16:00:00,
2013-01-28 10:02:00,32.9,25.5,29.68,ESE,112,0.0,1.3,74,0.00,,,0.00,VWS V14.01,2013-01-28 16:02:00,
2013-01-28 10:04:00,32.9,25.2,29.68,ESE,112,0.0,1.3,73,0.00,,,0.00,VWS V14.01,2013-01-28 16:04:00,
2013-01-28 10:06:00,32.9,25.2,29.68,ESE,112,6.7,6.7,73,0.00,,,0.00,VWS V14.01,2013-01-28 16:06:00,
2013-01-28 10:08:00,32.7,25.0,29.68,ESE,112,0.0,2.2,73,0.00,,,0.00,VWS V14.01,2013-01-28 16:08:00,
2013-01-28 10:10:00,32.9,25.2,29.71,ESE,112,0.0,2.2,73,0.00,,,0.00,VWS V14.01,2013-01-28 16:10:00,
2013-01-28 10:12:00,32.9,25.2,29.71,ESE,112,0.0,2.2,73,0.00,,,0.00,VWS V14.01,2013-01-28 16:12:00,
2013-01-28 10:14:00,33.1,25.4,29.71,ESE,112,0.0,2.2,73,0.00,,,0.00,VWS V14.01,2013-01-28 16:14:00,
2013-01-28 10:16:00,33.1,25.4,29.71,ESE,112,0.0,2.2,73,0.00,,,0.00,VWS V14.01,2013-01-28 16:16:00,
2013-01-28 10:18:00,35.6,24.3,29.68,ESE,112,0.0,2.9,63,0.00,,,0.00,VWS V14.01,2013-01-28 16:18:00,
2013-01-28 10:20:00,33.1,25.4,29.71,ESE,112,4.0,4.0,73,0.00,,,0.00,VWS V14.01,2013-01-28 16:20:00,
2013-01-28 10:22:00,33.1,25.4,29.71,ESE,112,0.0,2.2,73,0.00,,,0.00,VWS V14.01,2013-01-28 16:22:00,
2013-01-28 10:24:00,33.1,25.0,29.71,ESE,112,0.0,2.2,72,0.00,,,0.00,VWS V14.01,2013-01-28 16:24:00,
2013-01-28 10:26:00,33.3,25.6,29.71,ESE,112,0.0,2.2,73,0.00,,,0.00,VWS V14.01,2013-01-28 16:26:00,
2013-01-28 10:28:00,33.6,26.2,29.71,ESE,112,0.0,2.2,74,0.00,,,0.00,VWS V14.01,2013-01-28 16:28:00,
2013-01-28 10:30:00,34.0,26.2,29.71,ESE,112,3.4,3.4,73,0.00,,,0.00,VWS V14.01,2013-01-28 16:30:00,
2013-01-28 10:32:00,34.0,25.9,29.71,ESE,112,0.0,2.2,72,0.00,,,0.00,VWS V14.01,2013-01-28 16:32:00,
2013-01-28 10:34:00,34.3,26.3,29.71,ESE,112,0.0,2.2,72,0.00,,,0.00,VWS V14.01,2013-01-28 16:34:00,
2013-01-28 10:36:00,34.3,25.9,29.71,ESE,112,2.7,2.7,71,0.00,,,0.00,VWS V14.01,2013-01-28 16:36:00,
2013-01-28 10:38:00,34.5,26.1,29.71,ESE,112,0.0,2.2,71,0.00,,,0.00,VWS V14.01,2013-01-28 16:38:00,
2013-01-28 10:40:00,34.5,25.8,29.68,ESE,112,0.0,2.2,70,0.00,,,0.00,VWS V14.01,2013-01-28 16:40:00,
2013-01-28 10:42:00,34.7,25.9,29.68,ESE,112,2.7,2.7,70,0.00,,,0.00,VWS V14.01,2013-01-28 16:42:00,
2013-01-28 10:44:00,34.9,25.8,29.68,ESE,112,0.0,2.2,69,0.00,,,0.00,VWS V14.01,2013-01-28 16:44:00,
2013-01-28 10:46:00,34.9,25.8,29.68,ESE,112,3.4,3.4,69,0.00,,,0.00,VWS V14.01,2013-01-28 16:46:00,
2013-01-28 10:48:00,34.7,24.9,29.68,ESE,112,0.0,1.3,67,0.00,,,0.00,VWS V14.01,2013-01-28 16:48:00,
2013-01-28 10:50:00,34.5,24.7,29.68,ESE,112,4.7,4.7,67,0.00,,,0.00,VWS V14.01,2013-01-28 16:50:00,
2013-01-28 10:52:00,34.5,24.4,29.68,ESE,112,6.0,6.0,66,0.00,,,0.00,VWS V14.01,2013-01-28 16:52:00,
2013-01-28 10:54:00,34.5,24.4,29.68,ESE,112,7.4,7.4,66,0.00,,,0.00,VWS V14.01,2013-01-28 16:54:00,
2013-01-28 10:56:00,34.3,24.2,29.68,ESE,112,4.7,4.7,66,0.00,,,0.00,VWS V14.01,2013-01-28 16:56:00,
2013-01-28 10:58:00,34.3,24.2,29.68,ESE,112,0.0,2.5,66,0.00,,,0.00,VWS V14.01,2013-01-28 16:58:00,
2013-01-28 11:00:00,34.5,24.7,29.68,ESE,112,0.0,2.5,67,0.00,,,0.00,VWS V14.01,2013-01-28 17:00:00,
2013-01-28 11:02:00,34.9,25.0,29.68,ESE,112,0.0,2.5,67,0.00,,,0.00,VWS V14.01,2013-01-28 17:02:00,
2013-01-28 11:04:00,35.4,25.6,29.68,ESE,112,0.0,2.5,67,0.00,,,0.00,VWS V14.01,2013-01-28 17:04:00,
2013-01-28 11:06:00,35.6,25.4,29.68,ESE,112,0.0,2.5,66,0.00,,,0.00,VWS V14.01,2013-01-28 17:06:00,
2013-01-28 11:08:00,35.6,25.4,29.68,ESE,112,0.0,2.5,66,0.00,,,0.00,VWS V14.01,2013-01-28 17:08:00,
2013-01-28 11:10:00,35.8,25.5,29.68,ESE,112,8.7,8.7,66,0.00,,,0.00,VWS V14.01,2013-01-28 17:10:00,
2013-01-28 11:12:00,35.8,25.2,29.68,ESE,112,4.7,4.7,65,0.00,,,0.00,VWS V14.01,2013-01-28 17:12:00,
2013-01-28 11:14:00,35.6,24.6,29.68,ESE,112,0.0,2.9,64,0.00,,,0.00,VWS V14.01,2013-01-28 17:14:00,
2013-01-28 11:16:00,35.4,24.1,29.68,ESE,112,6.7,6.7,63,0.00,,,0.00,VWS V14.01,2013-01-28 17:16:00,
2013-01-28 11:18:00,35.6,24.3,29.68,ESE,112,0.0,2.9,63,0.00,,,0.00,VWS V14.01,2013-01-28 17:18:00,
2013-01-28 11:20:00,36.0,25.0,29.68,ESE,112,0.0,2.9,64,0.00,,,0.00,VWS V14.01,2013-01-28 17:20:00,
2013-01-28 11:22:00,36.1,24.8,29.68,ESE,112,4.0,4.0,63,0.00,,,0.00,VWS V14.01,2013-01-28 17:22:00,
2013-01-28 11:24:00,36.0,24.2,29.68,ESE,112,8.1,8.1,62,0.00,,,0.00,VWS V14.01,2013-01-28 17:24:00,
2013-01-28 11:26:00,35.8,24.0,29.68,ESE,112,0.0,2.9,62,0.00,,,0.00,VWS V14.01,2013-01-28 17:26:00,
2013-01-28 11:28:00,35.8,24.0,29.68,ESE,112,6.0,6.0,62,0.00,,,0.00,VWS V14.01,2013-01-28 17:28:00,
2013-01-28 11:30:00,35.8,23.7,29.68,ESE,112,4.7,4.7,61,0.00,,,0.00,VWS V14.01,2013-01-28 17:30:00,
2013-01-28 11:32:00,36.1,24.4,29.68,ESE,112,2.7,2.9,62,0.00,,,0.00,VWS V14.01,2013-01-28 17:32:00,
2013-01-28 11:34:00,36.1,24.0,29.68,ESE,112,7.4,7.4,61,0.00,,,0.00,VWS V14.01,2013-01-28 17:34:00,
2013-01-28 11:36:00,36.0,23.8,29.68,ESE,112,3.4,3.4,61,0.00,,,0.00,VWS V14.01,2013-01-28 17:36:00,
2013-01-28 11:38:00,36.0,23.8,29.68,SE,135,4.0,4.0,61,0.00,,,0.00,VWS V14.01,2013-01-28 17:38:00,
2013-01-28 11:40:00,35.8,23.3,29.68,SE,135,8.7,8.7,60,0.00,,,0.00,VWS V14.01,2013-01-28 17:40:00,
2013-01-28 11:42:00,35.8,23.3,29.68,SE,135,4.0,4.0,60,0.00,,,0.00,VWS V14.01,2013-01-28 17:42:00,
2013-01-28 11:44:00,35.8,23.3,29.68,SE,135,6.0,6.0,60,0.00,,,0.00,VWS V14.01,2013-01-28 17:44:00,
2013-01-28 11:46:00,36.0,23.4,29.68,SE,135,0.0,2.9,60,0.00,,,0.00,VWS V14.01,2013-01-28 17:46:00,
2013-01-28 11:48:00,36.1,23.6,29.68,SE,135,6.7,6.7,60,0.00,,,0.00,VWS V14.01,2013-01-28 17:48:00,
2013-01-28 11:50:00,36.5,24.3,29.68,SE,135,0.0,2.9,61,0.00,,,0.00,VWS V14.01,2013-01-28 17:50:00,
2013-01-28 11:52:00,36.9,24.7,29.68,SE,135,2.7,2.9,61,0.00,,,0.00,VWS V14.01,2013-01-28 17:52:00,
2013-01-28 11:54:00,36.9,24.3,29.68,SE,135,0.0,2.9,60,0.00,,,0.00,VWS V14.01,2013-01-28 17:54:00,
2013-01-28 11:56:00,36.3,23.4,29.68,SE,135,7.4,7.4,59,0.00,,,0.00,VWS V14.01,2013-01-28 17:56:00,
2013-01-28 11:58:00,36.3,23.4,29.68,SE,135,6.7,6.7,59,0.00,,,0.00,VWS V14.01,2013-01-28 17:58:00,
2013-01-28 12:00:00,36.3,23.8,29.68,SE,135,0.0,2.9,60,0.00,,,0.00,VWS V14.01,2013-01-28 18:00:00,
2013-01-28 12:02:00,36.7,24.1,29.68,SE,135,6.0,6.0,60,0.00,,,0.00,VWS V14.01,2013-01-28 18:02:00,
2013-01-28 12:04:00,36.5,23.5,29.68,SE,135,6.0,6.0,59,0.00,,,0.00,VWS V14.01,2013-01-28 18:04:00,
2013-01-28 12:06:00,36.5,23.5,29.68,SE,135,7.4,7.4,59,0.00,,,0.00,VWS V14.01,2013-01-28 18:06:00,
2013-01-28 12:08:00,36.3,23.4,29.68,SE,135,6.0,6.0,59,0.00,,,0.00,VWS V14.01,2013-01-28 18:08:00,
2013-01-28 12:10:00,36.3,23.4,29.68,SE,135,4.7,4.7,59,0.00,,,0.00,VWS V14.01,2013-01-28 18:10:00,
2013-01-28 12:12:00,36.3,23.4,29.68,SE,135,6.7,6.7,59,0.00,,,0.00,VWS V14.01,2013-01-28 18:12:00,
2013-01-28 12:14:00,36.3,23.4,29.68,SSE,158,6.0,6.0,59,0.00,,,0.00,VWS V14.01,2013-01-28 18:14:00,
2013-01-28 12:16:00,36.1,23.2,29.68,SW,225,9.4,9.4,59,0.00,,,0.00,VWS V14.01,2013-01-28 18:16:00,
2013-01-28 12:18:00,36.0,23.0,29.68,SSW,202,9.4,9.4,59,0.00,,,0.00,VWS V14.01,2013-01-28 18:18:00,
2013-01-28 12:20:00,35.8,23.3,29.68,SSW,202,0.0,3.1,60,0.00,,,0.00,VWS V14.01,2013-01-28 18:20:00,
2013-01-28 12:22:00,36.0,23.4,29.68,SW,225,4.7,4.7,60,0.00,,,0.00,VWS V14.01,2013-01-28 18:22:00,
2013-01-28 12:24:00,36.0,23.4,29.68,SSE,158,6.0,6.0,60,0.00,,,0.00,VWS V14.01,2013-01-28 18:24:00,
2013-01-28 12:26:00,37.9,24.9,29.65,South,180,4.7,4.7,59,0.00,,,0.00,VWS V14.01,2013-01-28 18:26:00,
2013-01-28 12:28:00,36.0,23.8,29.68,South,180,4.0,4.0,61,0.00,,,0.00,VWS V14.01,2013-01-28 18:28:00,
2013-01-28 12:30:00,35.8,23.7,29.68,SSW,202,8.1,8.1,61,0.00,,,0.00,VWS V14.01,2013-01-28 18:30:00,
2013-01-28 12:32:00,35.6,23.9,29.68,SSW,202,6.0,6.0,62,0.00,,,0.00,VWS V14.01,2013-01-28 18:32:00,
2013-01-28 12:34:00,35.6,23.9,29.68,SSE,158,0.0,3.1,62,0.00,,,0.00,VWS V14.01,2013-01-28 18:34:00,
2013-01-28 12:36:00,35.6,23.9,29.68,South,180,0.0,3.1,62,0.00,,,0.00,VWS V14.01,2013-01-28 18:36:00,
2013-01-28 12:38:00,35.6,23.9,29.68,SSW,202,10.7,10.7,62,0.00,,,0.00,VWS V14.01,2013-01-28 18:38:00,
2013-01-28 12:40:00,35.6,24.3,29.68,South,180,0.0,3.6,63,0.00,,,0.00,VWS V14.01,2013-01-28 18:40:00,
2013-01-28 12:42:00,39.6,26.0,29.62,SSE,158,0.0,2.7,58,0.00,,,0.00,VWS V14.01,2013-01-28 18:42:00,
2013-01-28 12:44:00,35.8,24.4,29.68,SSW,202,6.0,6.0,63,0.00,,,0.00,VWS V14.01,2013-01-28 18:44:00,
2013-01-28 12:46:00,36.0,25.0,29.68,WSW,248,0.0,3.6,64,0.00,,,0.00,VWS V14.01,2013-01-28 18:46:00,
2013-01-28 12:48:00,36.1,25.1,29.68,West,270,8.1,8.1,64,0.00,,,0.00,VWS V14.01,2013-01-28 18:48:00,
2013-01-28 12:50:00,36.1,24.8,29.68,South,180,6.0,6.0,63,0.00,,,0.00,VWS V14.01,2013-01-28 18:50:00,
2013-01-28 12:52:00,36.1,24.8,29.68,SSW,202,3.4,3.6,63,0.00,,,0.00,VWS V14.01,2013-01-28 18:52:00,
2013-01-28 12:54:00,36.3,25.0,29.68,SSW,202,0.0,3.6,63,0.00,,,0.00,VWS V14.01,2013-01-28 18:54:00,
2013-01-28 12:56:00,36.7,25.3,29.65,South,180,0.0,3.6,63,0.00,,,0.00,VWS V14.01,2013-01-28 18:56:00,
2013-01-28 12:58:00,36.9,25.5,29.65,SSW,202,0.0,3.6,63,0.00,,,0.00,VWS V14.01,2013-01-28 18:58:00,
2013-01-28 13:00:00,37.0,25.6,29.65,SSW,202,2.7,3.6,63,0.00,,,0.00,VWS V14.01,2013-01-28 19:00:00,
2013-01-28 13:02:00,37.2,25.8,29.65,SSW,202,2.7,3.6,63,0.00,,,0.00,VWS V14.01,2013-01-28 19:02:00,
2013-01-28 13:04:00,37.0,25.2,29.65,SW,225,0.0,3.6,62,0.00,,,0.00,VWS V14.01,2013-01-28 19:04:00,
2013-01-28 13:06:00,37.2,25.4,29.65,SSW,202,2.7,3.6,62,0.00,,,0.00,VWS V14.01,2013-01-28 19:06:00,
2013-01-28 13:08:00,37.2,25.4,29.65,South,180,6.7,6.7,62,0.00,,,0.00,VWS V14.01,2013-01-28 19:08:00,
2013-01-28 13:10:00,37.6,25.4,29.65,SSW,202,0.0,3.6,61,0.00,,,0.00,VWS V14.01,2013-01-28 19:10:00,
2013-01-28 13:12:00,37.8,25.5,29.65,SSW,202,8.1,8.1,61,0.00,,,0.00,VWS V14.01,2013-01-28 19:12:00,
2013-01-28 13:14:00,37.6,25.0,29.65,SSW,202,4.0,4.0,60,0.00,,,0.00,VWS V14.01,2013-01-28 19:14:00,
2013-01-28 13:16:00,37.6,25.0,29.65,SSW,202,4.7,4.7,60,0.00,,,0.00,VWS V14.01,2013-01-28 19:16:00,
2013-01-28 13:18:00,37.4,24.8,29.65,SSW,202,0.0,3.6,60,0.00,,,0.00,VWS V14.01,2013-01-28 19:18:00,
2013-01-28 13:20:00,37.4,24.8,29.65,South,180,3.4,3.4,60,0.00,,,0.00,VWS V14.01,2013-01-28 19:20:00,
2013-01-28 13:22:00,37.6,25.0,29.65,SSE,158,2.7,2.7,60,0.00,,,0.00,VWS V14.01,2013-01-28 19:22:00,
2013-01-28 13:24:00,37.9,25.3,29.65,SW,225,7.4,7.4,60,0.00,,,0.00,VWS V14.01,2013-01-28 19:24:00,
2013-01-28 13:26:00,37.9,24.9,29.65,South,180,4.7,4.7,59,0.00,,,0.00,VWS V14.01,2013-01-28 19:26:00,
2013-01-28 13:28:00,38.3,25.2,29.65,South,180,0.0,2.7,59,0.00,,,0.00,VWS V14.01,2013-01-28 19:28:00,
2013-01-28 13:30:00,38.7,26.0,29.65,SSW,202,0.0,2.7,60,0.00,,,0.00,VWS V14.01,2013-01-28 19:30:00,
2013-01-28 13:32:00,38.7,25.6,29.65,SSW,202,0.0,2.7,59,0.00,,,0.00,VWS V14.01,2013-01-28 19:32:00,
2013-01-28 13:34:00,38.7,25.6,29.65,SSW,202,0.0,2.7,59,0.00,,,0.00,VWS V14.01,2013-01-28 19:34:00,
2013-01-28 13:36:00,38.7,25.2,29.65,South,180,2.7,2.7,58,0.00,,,0.00,VWS V14.01,2013-01-28 19:36:00,
2013-01-28 13:38:00,38.8,25.3,29.65,SSW,202,0.0,2.7,58,0.00,,,0.00,VWS V14.01,2013-01-28 19:38:00,
2013-01-28 13:40:00,39.2,25.7,29.62,SE,135,0.0,2.7,58,0.00,,,0.00,VWS V14.01,2013-01-28 19:40:00,
2013-01-28 13:42:00,39.6,26.0,29.62,SSE,158,0.0,2.7,58,0.00,,,0.00,VWS V14.01,2013-01-28 19:42:00,
2013-01-28 13:44:00,39.4,25.9,29.62,ESE,112,3.4,3.4,58,0.00,,,0.00,VWS V14.01,2013-01-28 19:44:00,
2013-01-28 13:46:00,39.6,25.6,29.62,SE,135,0.0,2.7,57,0.00,,,0.00,VWS V14.01,2013-01-28 19:46:00,
2013-01-28 13:48:00,39.6,25.6,29.62,SE,135,4.7,4.7,57,0.00,,,0.00,VWS V14.01,2013-01-28 19:48:00,
2013-01-28 13:50:00,39.6,25.2,29.62,South,180,0.0,2.7,56,0.00,,,0.00,VWS V14.01,2013-01-28 19:50:00,
2013-01-28 13:52:00,39.4,25.0,29.62,NE,45,4.0,4.0,56,0.00,,,0.00,VWS V14.01,2013-01-28 19:52:00,
2013-01-28 13:54:00,39.4,25.0,29.62,SE,135,0.0,2.5,56,0.00,,,0.00,VWS V14.01,2013-01-28 19:54:00,
2013-01-28 13:56:00,39.2,24.4,29.65,SE,135,8.7,8.7,55,0.00,,,0.00,VWS V14.01,2013-01-28 19:56:00,
2013-01-28 13:58:00,38.8,24.5,29.65,SE,135,0.0,2.9,56,0.00,,,0.00,VWS V14.01,2013-01-28 19:58:00,
2013-01-28 14:00:00,38.7,23.9,29.65,SW,225,2.7,2.9,55,0.00,,,0.00,VWS V14.01,2013-01-28 20:00:00,
2013-01-28 14:02:00,38.5,24.2,29.65,SSW,202,0.0,2.9,56,0.00,,,0.00,VWS V14.01,2013-01-28 20:02:00,
2013-01-28 14:04:00,38.3,24.0,29.65,SSW,202,10.1,10.1,56,0.00,,,0.00,VWS V14.01,2013-01-28 20:04:00,
2013-01-28 14:06:00,37.9,23.7,29.65,South,180,4.0,4.0,56,0.00,,,0.00,VWS V14.01,2013-01-28 20:06:00,
2013-01-28 14:08:00,37.6,23.3,29.65,South,180,4.7,4.7,56,0.00,,,0.00,VWS V14.01,2013-01-28 20:08:00,
2013-01-28 14:10:00,37.4,23.6,29.65,WSW,248,0.0,3.4,57,0.00,,,0.00,VWS V14.01,2013-01-28 20:10:00,
2013-01-28 14:12:00,37.4,23.6,29.65,South,180,10.1,10.1,57,0.00,,,0.00,VWS V14.01,2013-01-28 20:12:00,
2013-01-28 14:14:00,37.0,24.1,29.65,SSW,202,8.7,8.7,59,0.00,,,0.00,VWS V14.01,2013-01-28 20:14:00,
2013-01-28 14:16:00,37.0,24.1,29.65,South,180,3.4,3.4,59,0.00,,,0.00,VWS V14.01,2013-01-28 20:16:00,
2013-01-28 14:18:00,36.9,24.3,29.65,SSE,158,0.0,3.4,60,0.00,,,0.00,VWS V14.01,2013-01-28 20:18:00,
2013-01-28 14:20:00,36.9,24.3,29.65,SW,225,0.0,3.4,60,0.00,,,0.00,VWS V14.01,2013-01-28 20:20:00,
2013-01-28 14:22:00,36.9,24.3,29.65,South,180,0.0,3.4,60,0.00,,,0.00,VWS V14.01,2013-01-28 20:22:00,
2013-01-28 14:24:00,36.9,24.7,29.65,SSE,158,0.0,3.4,61,0.00,,,0.00,VWS V14.01,2013-01-28 20:24:00,
2013-01-28 14:26:00,35.8,26.6,29.65,SSW,202,0.0,2.9,69,0.00,,,0.00,VWS V14.01,2013-01-28 20:26:00,
2013-01-28 14:28:00,37.0,24.9,29.65,SSW,202,0.0,3.4,61,0.00,,,0.00,VWS V14.01,2013-01-28 20:28:00,
2013-01-28 14:30:00,37.0,25.2,29.65,WSW,248,0.0,3.4,62,0.00,,,0.00,VWS V14.01,2013-01-28 20:30:00,
2013-01-28 14:32:00,36.9,25.1,29.65,SSW,202,4.0,4.0,62,0.00,,,0.00,VWS V14.01,2013-01-28 20:32:00,
2013-01-28 14:34:00,36.9,25.1,29.65,SW,225,0.0,3.4,62,0.00,,,0.00,VWS V14.01,2013-01-28 20:34:00,
2013-01-28 14:36:00,36.7,25.3,29.65,SSW,202,4.7,4.7,63,0.00,,,0.00,VWS V14.01,2013-01-28 20:36:00,
2013-01-28 14:38:00,36.7,25.3,29.65,South,180,0.0,3.4,63,0.00,,,0.00,VWS V14.01,2013-01-28 20:38:00,
2013-01-28 14:40:00,36.7,25.3,29.65,South,180,7.4,7.4,63,0.00,,,0.00,VWS V14.01,2013-01-28 20:40:00,
2013-01-28 14:42:00,35.4,26.6,29.65,SSW,202,0.0,2.0,70,0.00,,,0.00,VWS V14.01,2013-01-28 20:42:00,
2013-01-28 14:44:00,36.9,25.8,29.65,SSE,158,0.0,3.4,64,0.00,,,0.00,VWS V14.01,2013-01-28 20:44:00,
2013-01-28 14:46:00,36.7,25.7,29.65,SSW,202,6.0,6.0,64,0.00,,,0.00,VWS V14.01,2013-01-28 20:46:00,
2013-01-28 14:48:00,35.4,27.3,29.65,South,180,0.0,2.5,72,0.00,,,0.00,VWS V14.01,2013-01-28 20:48:00,
2013-01-28 14:50:00,36.5,25.5,29.65,SSW,202,0.0,3.4,64,0.00,,,0.00,VWS V14.01,2013-01-28 20:50:00,
2013-01-28 14:52:00,36.7,25.7,29.65,South,180,0.0,3.4,64,0.00,,,0.00,VWS V14.01,2013-01-28 20:52:00,
2013-01-28 14:54:00,36.7,26.0,29.65,SSW,202,0.0,3.4,65,0.00,,,0.00,VWS V14.01,2013-01-28 20:54:00,
2013-01-28 14:56:00,36.7,26.0,29.65,SSW,202,3.4,3.4,65,0.00,,,0.00,VWS V14.01,2013-01-28 20:56:00,
2013-01-28 14:58:00,36.5,25.9,29.65,South,180,2.7,2.9,65,0.00,,,0.00,VWS V14.01,2013-01-28 20:58:00,
2013-01-28 15:00:00,36.5,26.2,29.65,South,180,8.7,8.7,66,0.00,,,0.00,VWS V14.01,2013-01-28 21:00:00,
2013-01-28 15:02:00,36.7,26.8,29.65,South,180,8.1,8.1,67,0.00,,,0.00,VWS V14.01,2013-01-28 21:02:00,
2013-01-28 15:04:00,36.5,26.2,29.65,SW,225,2.7,2.9,66,0.00,,,0.00,VWS V14.01,2013-01-28 21:04:00,
2013-01-28 15:06:00,36.3,26.4,29.65,South,180,6.0,6.0,67,0.00,,,0.00,VWS V14.01,2013-01-28 21:06:00,
2013-01-28 15:08:00,36.3,26.4,29.65,SW,225,6.0,6.0,67,0.00,,,0.00,VWS V14.01,2013-01-28 21:08:00,
2013-01-28 15:10:00,36.1,26.3,29.65,SSW,202,6.0,6.0,67,0.00,,,0.00,VWS V14.01,2013-01-28 21:10:00,
2013-01-28 15:12:00,36.1,26.3,29.65,SSW,202,0.0,2.9,67,0.00,,,0.00,VWS V14.01,2013-01-28 21:12:00,
2013-01-28 15:14:00,36.0,26.4,29.65,SSW,202,3.4,3.4,68,0.00,,,0.00,VWS V14.01,2013-01-28 21:14:00,
2013-01-28 15:16:00,35.8,26.3,29.65,SSW,202,0.0,2.9,68,0.00,,,0.00,VWS V14.01,2013-01-28 21:16:00,
2013-01-28 15:18:00,35.8,26.3,29.65,ESE,112,0.0,2.9,68,0.00,,,0.00,VWS V14.01,2013-01-28 21:18:00,
2013-01-28 15:20:00,35.8,26.3,29.65,SSW,202,0.0,2.9,68,0.00,,,0.00,VWS V14.01,2013-01-28 21:20:00,
2013-01-28 15:22:00,35.6,26.5,29.65,SSW,202,0.0,2.9,69,0.00,,,0.00,VWS V14.01,2013-01-28 21:22:00,
2013-01-28 15:24:00,35.8,26.6,29.65,SE,135,0.0,2.9,69,0.00,,,0.00,VWS V14.01,2013-01-28 21:24:00,
2013-01-28 15:26:00,35.8,26.6,29.65,SSW,202,0.0,2.9,69,0.00,,,0.00,VWS V14.01,2013-01-28 21:26:00,
2013-01-28 15:28:00,35.8,26.6,29.65,SW,225,0.0,2.9,69,0.00,,,0.00,VWS V14.01,2013-01-28 21:28:00,
2013-01-28 15:30:00,35.6,26.8,29.65,SSW,202,4.0,4.0,70,0.00,,,0.00,VWS V14.01,2013-01-28 21:30:00,
2013-01-28 15:32:00,35.6,26.5,29.65,South,180,0.0,2.9,69,0.00,,,0.00,VWS V14.01,2013-01-28 21:32:00,
2013-01-28 15:34:00,35.6,26.5,29.65,SSW,202,3.4,3.4,69,0.00,,,0.00,VWS V14.01,2013-01-28 21:34:00,
2013-01-28 15:36:00,35.6,26.5,29.65,SSW,202,0.0,2.9,69,0.00,,,0.00,VWS V14.01,2013-01-28 21:36:00,
2013-01-28 15:38:00,35.6,26.5,29.65,SSW,202,0.0,2.9,69,0.00,,,0.00,VWS V14.01,2013-01-28 21:38:00,
2013-01-28 15:40:00,35.4,26.6,29.65,SSW,202,0.0,2.7,70,0.00,,,0.00,VWS V14.01,2013-01-28 21:40:00,
2013-01-28 15:42:00,35.4,26.6,29.65,SSW,202,0.0,2.0,70,0.00,,,0.00,VWS V14.01,2013-01-28 21:42:00,
2013-01-28 15:44:00,35.4,26.6,29.65,SSW,202,4.7,4.7,70,0.00,,,0.00,VWS V14.01,2013-01-28 21:44:00,
2013-01-28 15:46:00,35.4,27.0,29.65,SSW,202,7.4,7.4,71,0.00,,,0.00,VWS V14.01,2013-01-28 21:46:00,
2013-01-28 15:48:00,35.4,27.3,29.65,South,180,0.0,2.5,72,0.00,,,0.00,VWS V14.01,2013-01-28 21:48:00,
2013-01-28 15:50:00,35.4,27.3,29.65,SW,225,0.0,2.5,72,0.00,,,0.00,VWS V14.01,2013-01-28 21:50:00,
2013-01-28 15:52:00,35.4,27.3,29.65,SW,225,0.0,2.5,72,0.00,,,0.00,VWS V14.01,2013-01-28 21:52:00,
2013-01-28 15:54:00,35.4,27.3,29.65,WSW,248,2.7,2.7,72,0.00,,,0.00,VWS V14.01,2013-01-28 21:54:00,
2013-01-28 15:56:00,35.2,27.1,29.65,SSW,202,0.0,2.5,72,0.00,,,0.00,VWS V14.01,2013-01-28 21:56:00,
2013-01-28 15:58:00,35.2,27.1,29.65,SSW,202,0.0,2.5,72,0.00,,,0.00,VWS V14.01,2013-01-28 21:58:00,
2013-01-28 16:00:00,35.2,27.1,29.65,SSW,202,0.0,2.5,72,0.00,,,0.00,VWS V14.01,2013-01-28 22:00:00,
2013-01-28 16:02:00,35.1,27.0,29.65,SSW,202,6.7,6.7,72,0.00,,,0.00,VWS V14.01,2013-01-28 22:02:00,
2013-01-28 16:04:00,35.1,27.3,29.65,SSW,202,0.0,2.5,73,0.00,,,0.00,VWS V14.01,2013-01-28 22:04:00,
2013-01-28 16:06:00,35.1,27.3,29.65,SSW,202,8.1,8.1,73,0.00,,,0.00,VWS V14.01,2013-01-28 22:06:00,
2013-01-28 16:08:00,35.1,27.6,29.65,SSW,202,4.0,4.0,74,0.00,,,0.00,VWS V14.01,2013-01-28 22:08:00,
2013-01-28 16:10:00,35.1,27.6,29.65,SSW,202,0.0,2.7,74,0.00,,,0.00,VWS V14.01,2013-01-28 22:10:00,
2013-01-28 16:12:00,34.9,27.5,29.65,South,180,4.7,4.7,74,0.00,,,0.00,VWS V14.01,2013-01-28 22:12:00,
2013-01-28 16:14:00,34.9,27.8,29.65,SSW,202,0.0,2.7,75,0.00,,,0.00,VWS V14.01,2013-01-28 22:14:00,
2013-01-28 16:16:00,34.9,27.8,29.65,SSW,202,4.0,4.0,75,0.00,,,0.00,VWS V14.01,2013-01-28 22:16:00,
2013-01-28 16:18:00,34.7,27.6,29.65,SSW,202,0.0,2.7,75,0.00,,,0.00,VWS V14.01,2013-01-28 22:18:00,
2013-01-28 16:20:00,34.7,27.6,29.65,SSW,202,0.0,2.7,75,0.00,,,0.00,VWS V14.01,2013-01-28 22:20:00,
2013-01-28 16:22:00,34.7,27.6,29.65,SW,225,0.0,2.7,75,0.00,,,0.00,VWS V14.01,2013-01-28 22:22:00,
2013-01-28 16:24:00,34.7,27.6,29.65,WSW,248,0.0,2.7,75,0.00,,,0.00,VWS V14.01,2013-01-28 22:24:00,
2013-01-28 16:26:00,34.5,27.4,29.62,SE,135,2.7,2.7,75,0.00,,,0.00,VWS V14.01,2013-01-28 22:26:00,
2013-01-28 16:28:00,34.5,27.4,29.62,South,180,4.7,4.7,75,0.00,,,0.00,VWS V14.01,2013-01-28 22:28:00,
2013-01-28 16:30:00,34.5,27.8,29.62,SSW,202,0.0,2.7,76,0.00,,,0.00,VWS V14.01,2013-01-28 22:30:00,
2013-01-28 16:32:00,34.3,27.6,29.62,SSW,202,3.4,3.4,76,0.00,,,0.00,VWS V14.01,2013-01-28 22:32:00,
2013-01-28 16:34:00,34.3,27.9,29.62,South,180,4.7,4.7,77,0.00,,,0.00,VWS V14.01,2013-01-28 22:34:00,
2013-01-28 16:36:00,34.3,28.2,29.62,SSW,202,3.4,3.4,78,0.00,,,0.00,VWS V14.01,2013-01-28 22:36:00,
2013-01-28 16:38:00,34.2,28.0,29.62,SSW,202,0.0,2.7,78,0.00,,,0.00,VWS V14.01,2013-01-28 22:38:00,
2013-01-28 16:40:00,34.2,28.0,29.65,South,180,4.0,4.0,78,0.00,,,0.00,VWS V14.01,2013-01-28 22:40:00,
2013-01-28 16:42:00,34.2,28.0,29.65,SSW,202,0.0,2.7,78,0.00,,,0.00,VWS V14.01,2013-01-28 22:42:00,
2013-01-28 16:44:00,34.2,28.0,29.65,South,180,9.4,9.4,78,0.00,,,0.00,VWS V14.01,2013-01-28 22:44:00,
2013-01-28 16:46:00,34.2,28.3,29.65,SSW,202,8.7,8.7,79,0.00,,,0.00,VWS V14.01,2013-01-28 22:46:00,
2013-01-28 16:48:00,34.0,28.2,29.65,SSW,202,0.0,3.1,79,0.00,,,0.00,VWS V14.01,2013-01-28 22:48:00,
2013-01-28 16:50:00,34.0,28.5,29.65,SSW,202,4.7,4.7,80,0.00,,,0.00,VWS V14.01,2013-01-28 22:50:00,
2013-01-28 16:52:00,34.0,28.8,29.65,SSW,202,4.7,4.7,81,0.00,,,0.00,VWS V14.01,2013-01-28 22:52:00,
2013-01-28 16:54:00,34.0,28.8,29.65,SSW,202,2.7,3.1,81,0.00,,,0.00,VWS V14.01,2013-01-28 22:54:00,
2013-01-28 16:56:00,34.0,29.1,29.65,SSW,202,0.0,3.1,82,0.00,,,0.00,VWS V14.01,2013-01-28 22:56:00,
2013-01-28 16:58:00,34.0,29.1,29.65,SSW,202,4.7,4.7,82,0.00,,,0.00,VWS V14.01,2013-01-28 22:58:00,
2013-01-28 17:00:00,33.8,28.9,29.65,SSW,202,6.7,6.7,82,0.00,,,0.00,VWS V14.01,2013-01-28 23:00:00,
2013-01-28 17:02:00,33.8,29.2,29.65,SSW,202,6.0,6.0,83,0.00,,,0.00,VWS V14.01,2013-01-28 23:02:00,
2013-01-28 17:04:00,33.8,29.2,29.65,South,180,7.4,7.4,83,0.00,,,0.00,VWS V14.01,2013-01-28 23:04:00,
2013-01-28 17:06:00,33.8,29.2,29.65,South,180,0.0,3.1,83,0.00,,,0.00,VWS V14.01,2013-01-28 23:06:00,
2013-01-28 17:08:00,33.8,29.2,29.65,SSW,202,0.0,3.1,83,0.00,,,0.00,VWS V14.01,2013-01-28 23:08:00,
2013-01-28 17:10:00,33.8,29.2,29.65,SSW,202,0.0,3.1,83,0.00,,,0.00,VWS V14.01,2013-01-28 23:10:00,
2013-01-28 17:12:00,33.8,29.2,29.65,South,180,0.0,3.1,83,0.00,,,0.00,VWS V14.01,2013-01-28 23:12:00,
2013-01-28 17:14:00,33.6,29.0,29.65,SSE,158,0.0,3.1,83,0.00,,,0.00,VWS V14.01,2013-01-28 23:14:00,
2013-01-28 17:16:00,33.6,29.0,29.65,WSW,248,0.0,3.1,83,0.00,,,0.00,VWS V14.01,2013-01-28 23:16:00,
2013-01-28 17:18:00,33.6,29.0,29.65,South,180,0.0,3.1,83,0.00,,,0.00,VWS V14.01,2013-01-28 23:18:00,
2013-01-28 17:20:00,33.3,29.0,29.62,East,90,0.0,1.1,84,0.04,,,0.04,VWS V14.01,2013-01-28 23:20:00,
2013-01-28 17:22:00,33.6,29.3,29.65,SSW,202,7.4,7.4,84,0.00,,,0.00,VWS V14.01,2013-01-28 23:22:00,
2013-01-28 17:24:00,33.6,29.3,29.65,SSW,202,0.0,3.1,84,0.00,,,0.00,VWS V14.01,2013-01-28 23:24:00,
2013-01-28 17:26:00,33.6,29.3,29.68,SSW,202,3.4,3.4,84,0.00,,,0.00,VWS V14.01,2013-01-28 23:26:00,
2013-01-28 17:28:00,33.6,29.3,29.68,SSW,202,0.0,2.5,84,0.00,,,0.00,VWS V14.01,2013-01-28 23:28:00,
2013-01-28 17:30:00,33.6,29.3,29.68,South,180,0.0,2.5,84,0.00,,,0.00,VWS V14.01,2013-01-28 23:30:00,
2013-01-28 17:32:00,33.6,29.3,29.68,SSW,202,0.0,2.5,84,0.00,,,0.00,VWS V14.01,2013-01-28 23:32:00,
2013-01-28 17:34:00,33.6,29.3,29.68,SW,225,0.0,2.5,84,0.00,,,0.00,VWS V14.01,2013-01-28 23:34:00,
2013-01-28 17:36:00,33.6,29.3,29.68,SW,225,0.0,2.5,84,0.00,,,0.00,VWS V14.01,2013-01-28 23:36:00,
2013-01-28 17:38:00,33.6,29.3,29.68,South,180,0.0,2.5,84,0.00,,,0.00,VWS V14.01,2013-01-28 23:38:00,
2013-01-28 17:40:00,33.6,29.3,29.65,SW,225,0.0,2.5,84,0.00,,,0.00,VWS V14.01,2013-01-28 23:40:00,
2013-01-28 17:42:00,33.6,29.3,29.65,SW,225,0.0,2.5,84,0.00,,,0.00,VWS V14.01,2013-01-28 23:42:00,
2013-01-28 17:44:00,33.6,29.3,29.65,SW,225,0.0,2.5,84,0.00,,,0.00,VWS V14.01,2013-01-28 23:44:00,
2013-01-28 17:46:00,33.4,29.1,29.65,SW,225,0.0,2.5,84,0.00,,,0.00,VWS V14.01,2013-01-28 23:46:00,
2013-01-28 17:48:00,33.4,29.1,29.65,SSW,202,0.0,2.5,84,0.00,,,0.00,VWS V14.01,2013-01-28 23:48:00,
2013-01-28 17:50:00,33.4,29.1,29.65,SW,225,0.0,2.5,84,0.04,,,0.04,VWS V14.01,2013-01-28 23:50:00,
2013-01-28 17:52:00,33.4,29.1,29.65,SW,225,0.0,2.5,84,0.04,,,0.04,VWS V14.01,2013-01-28 23:52:00,
2013-01-28 17:54:00,33.4,29.1,29.65,SSE,158,0.0,2.5,84,0.04,,,0.04,VWS V14.01,2013-01-28 23:54:00,
2013-01-28 17:56:00,33.4,29.1,29.65,East,90,0.0,2.5,84,0.04,,,0.04,VWS V14.01,2013-01-28 23:56:00,
2013-01-28 17:58:00,33.4,29.1,29.65,SW,225,0.0,2.5,84,0.04,,,0.04,VWS V14.01,2013-01-28 23:58:00,
2013-01-28 18:00:00,33.3,29.2,29.62,WSW,248,0.0,1.6,85,0.00,,,0.04,VWS V14.01,2013-01-29 00:00:00,
2013-01-28 18:02:00,33.4,29.1,29.65,SSE,158,0.0,2.5,84,0.04,,,0.04,VWS V14.01,2013-01-29 00:02:00,
2013-01-28 18:04:00,33.4,29.1,29.65,SSE,158,0.0,1.1,84,0.04,,,0.04,VWS V14.01,2013-01-29 00:04:00,
2013-01-28 18:06:00,33.4,29.1,29.65,SSE,158,0.0,1.1,84,0.04,,,0.04,VWS V14.01,2013-01-29 00:06:00,
2013-01-28 18:08:00,33.4,29.1,29.65,SSE,158,0.0,0.0,84,0.04,,,0.04,VWS V14.01,2013-01-29 00:08:00,
2013-01-28 18:10:00,33.3,29.0,29.62,SSE,158,3.4,3.4,84,0.04,,,0.04,VWS V14.01,2013-01-29 00:10:00,
2013-01-28 18:12:00,33.3,29.0,29.62,West,270,0.0,1.1,84,0.04,,,0.04,VWS V14.01,2013-01-29 00:12:00,
2013-01-28 18:14:00,33.4,29.1,29.62,SW,225,0.0,1.1,84,0.04,,,0.04,VWS V14.01,2013-01-29 00:14:00,
2013-01-28 18:16:00,33.3,29.0,29.62,WSW,248,0.0,1.1,84,0.04,,,0.04,VWS V14.01,2013-01-29 00:16:00,
2013-01-28 18:18:00,33.3,29.0,29.62,SSE,158,0.0,1.1,84,0.04,,,0.04,VWS V14.01,2013-01-29 00:18:00,
2013-01-28 18:20:00,33.3,29.0,29.62,East,90,0.0,1.1,84,0.04,,,0.04,VWS V14.01,2013-01-29 00:20:00,
2013-01-28 18:22:00,33.3,29.0,29.62,SSE,158,4.7,4.7,84,0.04,,,0.04,VWS V14.01,2013-01-29 00:22:00,
2013-01-28 18:24:00,33.3,29.0,29.62,SE,135,0.0,1.6,84,0.04,,,0.04,VWS V14.01,2013-01-29 00:24:00,
2013-01-28 18:26:00,33.3,29.0,29.62,ESE,112,4.7,4.7,84,0.04,,,0.04,VWS V14.01,2013-01-29 00:26:00,
2013-01-28 18:28:00,33.1,29.6,29.59,SE,135,0.0,0.0,87,0.00,,,0.04,VWS V14.01,2013-01-29 00:28:00,
2013-01-28 18:30:00,33.1,29.6,29.59,SE,135,0.0,0.0,87,0.00,,,0.04,VWS V14.01,2013-01-29 00:30:00,
2013-01-28 18:32:00,33.3,29.2,29.62,SSW,202,0.0,1.6,85,0.04,,,0.04,VWS V14.01,2013-01-29 00:32:00,
2013-01-28 18:34:00,33.3,29.2,29.62,South,180,0.0,1.6,85,0.04,,,0.04,VWS V14.01,2013-01-29 00:34:00,
2013-01-28 18:36:00,33.3,29.2,29.62,South,180,0.0,1.6,85,0.04,,,0.04,VWS V14.01,2013-01-29 00:36:00,
2013-01-28 18:38:00,33.3,29.2,29.62,SSW,202,0.0,1.6,85,0.04,,,0.04,VWS V14.01,2013-01-29 00:38:00,
2013-01-28 18:40:00,33.3,29.2,29.62,SSW,202,0.0,1.6,85,0.04,,,0.04,VWS V14.01,2013-01-29 00:40:00,
2013-01-28 18:42:00,33.3,29.2,29.62,SSW,202,0.0,1.6,85,0.04,,,0.04,VWS V14.01,2013-01-29 00:42:00,
2013-01-28 18:44:00,33.3,29.2,29.62,SSW,202,0.0,1.6,85,0.04,,,0.04,VWS V14.01,2013-01-29 00:44:00,
2013-01-28 18:46:00,33.3,29.2,29.62,SSW,202,0.0,1.6,85,0.04,,,0.04,VWS V14.01,2013-01-29 00:46:00,
2013-01-28 18:48:00,33.3,29.2,29.62,WSW,248,0.0,1.6,85,0.04,,,0.04,VWS V14.01,2013-01-29 00:48:00,
2013-01-28 18:50:00,32.9,29.7,29.59,SE,135,0.0,0.0,88,0.00,,,0.04,VWS V14.01,2013-01-29 00:50:00,
2013-01-28 18:52:00,33.3,29.2,29.62,WSW,248,0.0,1.6,85,0.04,,,0.04,VWS V14.01,2013-01-29 00:52:00,
2013-01-28 18:54:00,33.3,29.2,29.62,WSW,248,0.0,1.6,85,0.00,,,0.04,VWS V14.01,2013-01-29 00:54:00,
2013-01-28 18:56:00,33.3,29.2,29.62,WSW,248,0.0,1.6,85,0.00,,,0.04,VWS V14.01,2013-01-29 00:56:00,
2013-01-28 18:58:00,33.3,29.2,29.62,WSW,248,0.0,1.6,85,0.00,,,0.04,VWS V14.01,2013-01-29 00:58:00,
2013-01-28 19:00:00,33.3,29.2,29.62,WSW,248,0.0,1.6,85,0.00,,,0.04,VWS V14.01,2013-01-29 01:00:00,
2013-01-28 19:02:00,33.3,29.5,29.62,SE,135,0.0,1.6,86,0.00,,,0.04,VWS V14.01,2013-01-29 01:02:00,
2013-01-28 19:04:00,33.3,29.5,29.62,SE,135,0.0,1.6,86,0.00,,,0.04,VWS V14.01,2013-01-29 01:04:00,
2013-01-28 19:06:00,33.1,29.4,29.62,SE,135,0.0,1.6,86,0.00,,,0.04,VWS V14.01,2013-01-29 01:06:00,
2013-01-28 19:08:00,33.3,29.5,29.62,SE,135,0.0,1.6,86,0.00,,,0.04,VWS V14.01,2013-01-29 01:08:00,
2013-01-28 19:10:00,33.1,29.4,29.59,SE,135,0.0,1.6,86,0.00,,,0.04,VWS V14.01,2013-01-29 01:10:00,
2013-01-28 19:12:00,33.1,29.4,29.59,SE,135,0.0,0.0,86,0.00,,,0.04,VWS V14.01,2013-01-29 01:12:00,
2013-01-28 19:14:00,33.1,29.4,29.59,SE,135,0.0,0.0,86,0.00,,,0.04,VWS V14.01,2013-01-29 01:14:00,
2013-01-28 19:16:00,33.1,29.4,29.59,SE,135,0.0,0.0,86,0.00,,,0.04,VWS V14.01,2013-01-29 01:16:00,
2013-01-28 19:18:00,33.1,29.4,29.59,SE,135,0.0,0.0,86,0.00,,,0.04,VWS V14.01,2013-01-29 01:18:00,
2013-01-28 19:20:00,33.1,29.4,29.59,SE,135,0.0,0.0,86,0.00,,,0.04,VWS V14.01,2013-01-29 01:20:00,
2013-01-28 19:22:00,33.1,29.4,29.59,SE,135,0.0,0.0,86,0.00,,,0.04,VWS V14.01,2013-01-29 01:22:00,
2013-01-28 19:24:00,32.7,30.1,29.59,SSW,202,12.8,12.8,90,0.00,,,0.04,VWS V14.01,2013-01-29 01:24:00,
2013-01-28 19:26:00,33.1,29.6,29.59,SE,135,0.0,0.0,87,0.00,,,0.04,VWS V14.01,2013-01-29 01:26:00,
2013-01-28 19:28:00,33.1,29.6,29.59,SE,135,0.0,0.0,87,0.00,,,0.04,VWS V14.01,2013-01-29 01:28:00,
2013-01-28 19:30:00,33.1,29.6,29.59,SE,135,0.0,0.0,87,0.00,,,0.04,VWS V14.01,2013-01-29 01:30:00,
2013-01-28 19:32:00,32.9,29.5,29.59,SE,135,0.0,0.0,87,0.00,,,0.04,VWS V14.01,2013-01-29 01:32:00,
2013-01-28 19:34:00,32.9,29.5,29.59,SE,135,0.0,0.0,87,0.00,,,0.04,VWS V14.01,2013-01-29 01:34:00,
2013-01-28 19:36:00,32.9,29.5,29.59,SE,135,0.0,0.0,87,0.00,,,0.04,VWS V14.01,2013-01-29 01:36:00,
2013-01-28 19:38:00,32.9,29.5,29.59,SE,135,0.0,0.0,87,0.00,,,0.04,VWS V14.01,2013-01-29 01:38:00,
2013-01-28 19:40:00,32.5,30.2,29.59,SSW,202,12.8,12.8,91,0.00,,,0.04,VWS V14.01,2013-01-29 01:40:00,
2013-01-28 19:42:00,32.9,29.7,29.59,SE,135,0.0,0.0,88,0.00,,,0.04,VWS V14.01,2013-01-29 01:42:00,
2013-01-28 19:44:00,32.9,29.7,29.59,SE,135,0.0,0.0,88,0.00,,,0.04,VWS V14.01,2013-01-29 01:44:00,
2013-01-28 19:46:00,32.9,29.7,29.59,SE,135,0.0,0.0,88,0.00,,,0.04,VWS V14.01,2013-01-29 01:46:00,
2013-01-28 19:48:00,32.9,29.7,29.59,SE,135,0.0,0.0,88,0.00,,,0.04,VWS V14.01,2013-01-29 01:48:00,
2013-01-28 19:50:00,32.9,29.7,29.59,SE,135,0.0,0.0,88,0.00,,,0.04,VWS V14.01,2013-01-29 01:50:00,
2013-01-28 19:52:00,32.9,29.7,29.59,SE,135,0.0,0.0,88,0.00,,,0.04,VWS V14.01,2013-01-29 01:52:00,
2013-01-28 19:54:00,32.9,29.7,29.59,SE,135,0.0,0.0,88,0.00,,,0.04,VWS V14.01,2013-01-29 01:54:00,
2013-01-28 19:56:00,32.4,30.0,29.59,SSW,202,12.8,12.8,91,0.00,,,0.04,VWS V14.01,2013-01-29 01:56:00,
2013-01-28 19:58:00,32.7,29.6,29.56,SE,135,0.0,0.0,88,0.00,,,0.04,VWS V14.01,2013-01-29 01:58:00,
2013-01-28 20:00:00,32.4,30.0,29.59,SSW,202,12.8,12.8,91,0.00,,,0.04,VWS V14.01,2013-01-29 02:00:00,
2013-01-28 20:02:00,32.7,29.8,29.56,SE,135,0.0,0.0,89,0.00,,,0.04,VWS V14.01,2013-01-29 02:02:00,
2013-01-28 20:04:00,32.7,29.8,29.56,SE,135,0.0,0.0,89,0.00,,,0.04,VWS V14.01,2013-01-29 02:04:00,
2013-01-28 20:06:00,32.7,29.8,29.56,SE,135,0.0,0.0,89,0.00,,,0.04,VWS V14.01,2013-01-29 02:06:00,
2013-01-28 20:08:00,32.7,29.8,29.56,SSW,202,0.0,0.0,89,0.00,,,0.04,VWS V14.01,2013-01-29 02:08:00,
2013-01-28 20:10:00,32.7,29.8,29.59,SSW,202,12.8,12.8,89,0.00,,,0.04,VWS V14.01,2013-01-29 02:10:00,
2013-01-28 20:12:00,32.7,29.8,29.59,SSW,202,12.8,12.8,89,0.00,,,0.04,VWS V14.01,2013-01-29 02:12:00,
2013-01-28 20:14:00,32.7,29.8,29.59,SSW,202,12.8,12.8,89,0.00,,,0.04,VWS V14.01,2013-01-29 02:14:00,
2013-01-28 20:16:00,32.7,29.8,29.59,SSW,202,12.8,12.8,89,0.00,,,0.04,VWS V14.01,2013-01-29 02:16:00,
2013-01-28 20:18:00,32.7,30.1,29.59,SSW,202,12.8,12.8,90,0.00,,,0.04,VWS V14.01,2013-01-29 02:18:00,
2013-01-28 20:20:00,32.7,30.1,29.59,SSW,202,12.8,12.8,90,0.00,,,0.04,VWS V14.01,2013-01-29 02:20:00,
2013-01-28 20:22:00,32.2,30.1,29.56,SSW,202,12.8,12.8,92,0.00,,,0.04,VWS V14.01,2013-01-29 02:22:00,
2013-01-28 20:24:00,32.7,30.1,29.59,SSW,202,12.8,12.8,90,0.00,,,0.04,VWS V14.01,2013-01-29 02:24:00,
2013-01-28 20:26:00,32.7,30.1,29.59,SSW,202,12.8,12.8,90,0.00,,,0.04,VWS V14.01,2013-01-29 02:26:00,
2013-01-28 20:28:00,32.7,30.1,29.59,SSW,202,12.8,12.8,90,0.00,,,0.04,VWS V14.01,2013-01-29 02:28:00,
2013-01-28 20:30:00,32.5,30.2,29.59,SSW,202,12.8,12.8,91,0.00,,,0.04,VWS V14.01,2013-01-29 02:30:00,
2013-01-28 20:32:00,32.5,30.2,29.59,SSW,202,12.8,12.8,91,0.00,,,0.04,VWS V14.01,2013-01-29 02:32:00,
2013-01-28 20:34:00,32.5,30.2,29.59,SSW,202,12.8,12.8,91,0.00,,,0.04,VWS V14.01,2013-01-29 02:34:00,
2013-01-28 20:36:00,32.5,30.2,29.59,SSW,202,12.8,12.8,91,0.00,,,0.04,VWS V14.01,2013-01-29 02:36:00,
2013-01-28 20:38:00,32.5,30.2,29.59,SSW,202,12.8,12.8,91,0.00,,,0.04,VWS V14.01,2013-01-29 02:38:00,
2013-01-28 20:40:00,32.5,30.2,29.59,SSW,202,12.8,12.8,91,0.00,,,0.04,VWS V14.01,2013-01-29 02:40:00,
2013-01-28 20:42:00,32.5,30.2,29.59,SSW,202,12.8,12.8,91,0.00,,,0.04,VWS V14.01,2013-01-29 02:42:00,
2013-01-28 20:44:00,32.5,30.2,29.59,SSW,202,12.8,12.8,91,0.00,,,0.04,VWS V14.01,2013-01-29 02:44:00,
2013-01-28 20:46:00,32.5,30.2,29.59,SSW,202,12.8,12.8,91,0.00,,,0.04,VWS V14.01,2013-01-29 02:46:00,
2013-01-28 20:48:00,32.5,30.2,29.59,SSW,202,12.8,12.8,91,0.00,,,0.04,VWS V14.01,2013-01-29 02:48:00,
2013-01-28 20:50:00,32.4,30.0,29.59,SSW,202,12.8,12.8,91,0.00,,,0.04,VWS V14.01,2013-01-29 02:50:00,
2013-01-28 20:52:00,32.4,30.0,29.59,SSW,202,12.8,12.8,91,0.00,,,0.04,VWS V14.01,2013-01-29 02:52:00,
2013-01-28 20:54:00,32.4,30.0,29.59,SSW,202,12.8,12.8,91,0.00,,,0.04,VWS V14.01,2013-01-29 02:54:00,
2013-01-28 20:56:00,32.4,30.0,29.59,SSW,202,12.8,12.8,91,0.00,,,0.04,VWS V14.01,2013-01-29 02:56:00,
2013-01-28 20:58:00,32.4,30.0,29.59,SSW,202,12.8,12.8,91,0.00,,,0.04,VWS V14.01,2013-01-29 02:58:00,
2013-01-28 21:00:00,32.4,30.0,29.59,SSW,202,12.8,12.8,91,0.00,,,0.04,VWS V14.01,2013-01-29 03:00:00,
2013-01-28 21:02:00,32.2,29.9,29.59,SSW,202,12.8,12.8,91,0.00,,,0.04,VWS V14.01,2013-01-29 03:02:00,
2013-01-28 21:04:00,32.2,29.9,29.59,SSW,202,12.8,12.8,91,0.00,,,0.04,VWS V14.01,2013-01-29 03:04:00,
2013-01-28 21:06:00,32.2,29.9,29.59,SSW,202,12.8,12.8,91,0.00,,,0.04,VWS V14.01,2013-01-29 03:06:00,
2013-01-28 21:08:00,32.2,29.9,29.59,SSW,202,12.8,12.8,91,0.00,,,0.04,VWS V14.01,2013-01-29 03:08:00,
2013-01-28 21:10:00,32.2,29.9,29.56,SSW,202,12.8,12.8,91,0.00,,,0.04,VWS V14.01,2013-01-29 03:10:00,
2013-01-28 21:12:00,32.2,29.9,29.56,SSW,202,12.8,12.8,91,0.00,,,0.04,VWS V14.01,2013-01-29 03:12:00,
2013-01-28 21:14:00,32.2,30.1,29.56,SSW,202,12.8,12.8,92,0.00,,,0.04,VWS V14.01,2013-01-29 03:14:00,
2013-01-28 21:16:00,32.2,30.1,29.56,SSW,202,12.8,12.8,92,0.00,,,0.04,VWS V14.01,2013-01-29 03:16:00,
2013-01-28 21:18:00,32.2,30.1,29.56,SSW,202,12.8,12.8,92,0.00,,,0.04,VWS V14.01,2013-01-29 03:18:00,
2013-01-28 21:20:00,32.2,30.1,29.56,SSW,202,12.8,12.8,92,0.00,,,0.04,VWS V14.01,2013-01-29 03:20:00,
2013-01-28 21:22:00,32.2,30.1,29.56,SSW,202,12.8,12.8,92,0.00,,,0.04,VWS V14.01,2013-01-29 03:22:00,
2013-01-28 21:24:00,31.8,30.5,29.50,SSW,202,12.8,12.8,95,0.00,,,0.04,VWS V14.01,2013-01-29 03:24:00,
2013-01-28 21:26:00,32.2,30.1,29.53,SSW,202,12.8,12.8,92,0.00,,,0.04,VWS V14.01,2013-01-29 03:26:00,
2013-01-28 21:28:00,32.2,30.4,29.53,SSW,202,12.8,12.8,93,0.00,,,0.04,VWS V14.01,2013-01-29 03:28:00,
2013-01-28 21:30:00,31.8,30.5,29.53,SSW,202,12.8,12.8,95,0.00,,,0.04,VWS V14.01,2013-01-29 03:30:00,
2013-01-28 21:32:00,32.0,30.2,29.53,SSW,202,12.8,12.8,93,0.00,,,0.04,VWS V14.01,2013-01-29 03:32:00,
2013-01-28 21:34:00,32.0,30.2,29.53,SSW,202,12.8,12.8,93,0.00,,,0.04,VWS V14.01,2013-01-29 03:34:00,
2013-01-28 21:36:00,32.0,30.2,29.53,SSW,202,12.8,12.8,93,0.00,,,0.04,VWS V14.01,2013-01-29 03:36:00,
2013-01-28 21:38:00,32.0,30.2,29.53,SSW,202,12.8,12.8,93,0.00,,,0.04,VWS V14.01,2013-01-29 03:38:00,
2013-01-28 21:40:00,32.0,30.5,29.53,SSW,202,12.8,12.8,94,0.00,,,0.04,VWS V14.01,2013-01-29 03:40:00,
2013-01-28 21:42:00,32.0,30.5,29.53,SSW,202,12.8,12.8,94,0.00,,,0.04,VWS V14.01,2013-01-29 03:42:00,
2013-01-28 21:44:00,32.0,30.5,29.53,SSW,202,12.8,12.8,94,0.00,,,0.04,VWS V14.01,2013-01-29 03:44:00,
2013-01-28 21:46:00,32.0,30.5,29.53,SSW,202,12.8,12.8,94,0.00,,,0.04,VWS V14.01,2013-01-29 03:46:00,
2013-01-28 21:48:00,31.8,30.5,29.53,SSW,202,12.8,12.8,95,0.00,,,0.04,VWS V14.01,2013-01-29 03:48:00,
2013-01-28 21:50:00,32.0,30.5,29.53,SSW,202,12.8,12.8,94,0.00,,,0.04,VWS V14.01,2013-01-29 03:50:00,
2013-01-28 21:52:00,32.0,30.5,29.53,SSW,202,12.8,12.8,94,0.00,,,0.04,VWS V14.01,2013-01-29 03:52:00,
2013-01-28 21:54:00,32.0,30.5,29.53,SSW,202,12.8,12.8,94,0.00,,,0.04,VWS V14.01,2013-01-29 03:54:00,
2013-01-28 21:56:00,32.0,30.5,29.53,SSW,202,12.8,12.8,94,0.00,,,0.04,VWS V14.01,2013-01-29 03:56:00,
2013-01-28 21:58:00,32.0,30.5,29.53,SSW,202,12.8,12.8,94,0.00,,,0.04,VWS V14.01,2013-01-29 03:58:00,
2013-01-28 22:00:00,32.0,30.5,29.53,SSW,202,12.8,12.8,94,0.00,,,0.04,VWS V14.01,2013-01-29 04:00:00,
2013-01-28 22:02:00,32.0,30.5,29.53,SSW,202,12.8,12.8,94,0.00,,,0.04,VWS V14.01,2013-01-29 04:02:00,
2013-01-28 22:04:00,31.6,30.4,29.53,SSW,202,12.8,12.8,95,0.00,,,0.04,VWS V14.01,2013-01-29 04:04:00,
2013-01-28 22:06:00,31.6,30.4,29.53,SSW,202,12.8,12.8,95,0.00,,,0.04,VWS V14.01,2013-01-29 04:06:00,
2013-01-28 22:08:00,31.8,30.3,29.53,SSW,202,12.8,12.8,94,0.00,,,0.04,VWS V14.01,2013-01-29 04:08:00,
2013-01-28 22:10:00,31.8,30.5,29.50,SSW,202,12.8,12.8,95,0.00,,,0.04,VWS V14.01,2013-01-29 04:10:00,
2013-01-28 22:12:00,31.8,30.5,29.50,SSW,202,12.8,12.8,95,0.00,,,0.04,VWS V14.01,2013-01-29 04:12:00,
2013-01-28 22:14:00,31.8,30.5,29.50,SSW,202,12.8,12.8,95,0.00,,,0.04,VWS V14.01,2013-01-29 04:14:00,
2013-01-28 22:16:00,31.8,30.5,29.50,SSW,202,12.8,12.8,95,0.00,,,0.04,VWS V14.01,2013-01-29 04:16:00,
2013-01-28 22:18:00,31.8,30.5,29.50,SSW,202,12.8,12.8,95,0.00,,,0.04,VWS V14.01,2013-01-29 04:18:00,
2013-01-28 22:20:00,31.8,30.5,29.50,SSW,202,12.8,12.8,95,0.00,,,0.04,VWS V14.01,2013-01-29 04:20:00,
2013-01-28 22:22:00,31.8,30.5,29.50,SSW,202,12.8,12.8,95,0.00,,,0.04,VWS V14.01,2013-01-29 04:22:00,
2013-01-28 22:24:00,31.8,30.5,29.50,SSW,202,12.8,12.8,95,0.00,,,0.04,VWS V14.01,2013-01-29 04:24:00,
2013-01-28 22:26:00,31.8,30.5,29.53,SSW,202,12.8,12.8,95,0.00,,,0.04,VWS V14.01,2013-01-29 04:26:00,
2013-01-28 22:28:00,31.8,30.5,29.53,SSW,202,12.8,12.8,95,0.00,,,0.04,VWS V14.01,2013-01-29 04:28:00,
2013-01-28 22:30:00,31.8,30.5,29.53,SSW,202,12.8,12.8,95,0.00,,,0.04,VWS V14.01,2013-01-29 04:30:00,
2013-01-28 22:32:00,31.6,30.4,29.53,SSW,202,12.8,12.8,95,0.00,,,0.04,VWS V14.01,2013-01-29 04:32:00,
2013-01-28 22:34:00,31.6,30.4,29.53,SSW,202,12.8,12.8,95,0.00,,,0.04,VWS V14.01,2013-01-29 04:34:00,
2013-01-28 22:36:00,31.6,30.4,29.53,SSW,202,12.8,12.8,95,0.00,,,0.04,VWS V14.01,2013-01-29 04:36:00,
2013-01-28 22:38:00,31.6,30.4,29.53,SSW,202,12.8,12.8,95,0.00,,,0.04,VWS V14.01,2013-01-29 04:38:00,
2013-01-28 22:40:00,31.6,30.4,29.53,SSW,202,12.8,12.8,95,0.00,,,0.04,VWS V14.01,2013-01-29 04:40:00,
2013-01-28 22:42:00,31.6,30.4,29.53,SSW,202,12.8,12.8,95,0.00,,,0.04,VWS V14.01,2013-01-29 04:42:00,
2013-01-28 22:44:00,31.6,30.4,29.53,SSW,202,12.8,12.8,95,0.00,,,0.04,VWS V14.01,2013-01-29 04:44:00,
2013-01-28 22:46:00,31.6,30.4,29.53,SSW,202,12.8,12.8,95,0.00,,,0.04,VWS V14.01,2013-01-29 04:46:00,
2013-01-28 22:48:00,31.8,30.5,29.53,SSW,202,12.8,12.8,95,0.00,,,0.04,VWS V14.01,2013-01-29 04:48:00,
2013-01-28 22:50:00,31.8,30.5,29.53,SSW,202,12.8,12.8,95,0.00,,,0.04,VWS V14.01,2013-01-29 04:50:00,
2013-01-28 22:52:00,31.8,30.5,29.53,SSW,202,12.8,12.8,95,0.00,,,0.04,VWS V14.01,2013-01-29 04:52:00,
2013-01-28 22:54:00,31.8,30.5,29.53,SSW,202,12.8,12.8,95,0.00,,,0.04,VWS V14.01,2013-01-29 04:54:00,
2013-01-28 22:56:00,31.6,30.4,29.53,SSW,202,12.8,12.8,95,0.00,,,0.04,VWS V14.01,2013-01-29 04:56:00,
2013-01-28 22:58:00,31.6,30.4,29.53,SSW,202,12.8,12.8,95,0.00,,,0.04,VWS V14.01,2013-01-29 04:58:00,
2013-01-28 23:00:00,31.8,30.5,29.53,SSW,202,12.8,12.8,95,0.00,,,0.04,VWS V14.01,2013-01-29 05:00:00,
2013-01-28 23:02:00,31.8,30.5,29.53,SSW,202,12.8,12.8,95,0.00,,,0.04,VWS V14.01,2013-01-29 05:02:00,
2013-01-28 23:04:00,31.6,30.4,29.53,SSW,202,12.8,12.8,95,0.00,,,0.04,VWS V14.01,2013-01-29 05:04:00,
2013-01-28 23:06:00,31.6,30.4,29.53,SSW,202,12.8,12.8,95,0.00,,,0.04,VWS V14.01,2013-01-29 05:06:00,
2013-01-28 23:08:00,31.6,30.4,29.53,SSW,202,12.8,12.8,95,0.00,,,0.04,VWS V14.01,2013-01-29 05:08:00,
2013-01-28 23:10:00,31.6,30.4,29.53,SSW,202,12.8,12.8,95,0.00,,,0.04,VWS V14.01,2013-01-29 05:10:00,
2013-01-28 23:12:00,31.6,30.4,29.53,SSW,202,12.8,12.8,95,0.00,,,0.04,VWS V14.01,2013-01-29 05:12:00,
2013-01-28 23:14:00,31.6,30.4,29.53,SSW,202,12.8,12.8,95,0.00,,,0.04,VWS V14.01,2013-01-29 05:14:00,
2013-01-28 23:16:00,31.6,30.4,29.53,SSW,202,12.8,12.8,95,0.00,,,0.04,VWS V14.01,2013-01-29 05:16:00,
2013-01-28 23:18:00,31.6,30.4,29.53,SSW,202,12.8,12.8,95,0.00,,,0.04,VWS V14.01,2013-01-29 05:18:00,
2013-01-28 23:20:00,31.5,29.9,29.47,SSW,202,12.8,12.8,94,0.00,,,0.00,VWS V14.01,2013-01-29 05:20:00,
2013-01-28 23:22:00,31.6,30.4,29.53,SSW,202,12.8,12.8,95,0.00,,,0.04,VWS V14.01,2013-01-29 05:22:00,
2013-01-28 23:24:00,31.6,30.4,29.53,SSW,202,12.8,12.8,95,0.00,,,0.04,VWS V14.01,2013-01-29 05:24:00,
2013-01-28 23:26:00,31.6,30.4,29.53,SSW,202,12.8,12.8,95,0.00,,,0.04,VWS V14.01,2013-01-29 05:26:00,
2013-01-28 23:28:00,31.5,29.9,29.44,ENE,68,0.0,4.3,94,0.00,,,0.00,VWS V14.01,2013-01-29 05:28:00,
2013-01-28 23:30:00,31.6,30.4,29.53,SSW,202,12.8,12.8,95,0.00,,,0.04,VWS V14.01,2013-01-29 05:30:00,
2013-01-28 23:32:00,31.6,30.4,29.53,SSW,202,12.8,12.8,95,0.00,,,0.04,VWS V14.01,2013-01-29 05:32:00,
2013-01-28 23:34:00,31.6,30.4,29.53,SSW,202,12.8,12.8,95,0.00,,,0.04,VWS V14.01,2013-01-29 05:34:00,
2013-01-28 23:36:00,31.6,30.4,29.53,SSW,202,12.8,12.8,95,0.00,,,0.04,VWS V14.01,2013-01-29 05:36:00,
2013-01-28 23:38:00,31.6,30.4,29.53,SSW,202,12.8,12.8,95,0.00,,,0.04,VWS V14.01,2013-01-29 05:38:00,
2013-01-28 23:40:00,31.6,30.4,29.50,SSW,202,12.8,12.8,95,0.00,,,0.04,VWS V14.01,2013-01-29 05:40:00,
2013-01-28 23:42:00,31.6,30.4,29.50,SSW,202,12.8,12.8,95,0.00,,,0.04,VWS V14.01,2013-01-29 05:42:00,
2013-01-28 23:44:00,31.6,30.4,29.50,SSW,202,12.8,12.8,95,0.00,,,0.04,VWS V14.01,2013-01-29 05:44:00,
2013-01-28 23:46:00,31.6,30.4,29.50,SSW,202,12.8,12.8,95,0.00,,,0.04,VWS V14.01,2013-01-29 05:46:00,
2013-01-28 23:48:00,31.6,30.4,29.50,SSW,202,12.8,12.8,95,0.00,,,0.04,VWS V14.01,2013-01-29 05:48:00,
2013-01-28 23:50:00,31.6,30.4,29.50,SSW,202,12.8,12.8,95,0.00,,,0.04,VWS V14.01,2013-01-29 05:50:00,
2013-01-28 23:52:00,31.6,30.4,29.50,SSW,202,12.8,12.8,95,0.00,,,0.04,VWS V14.01,2013-01-29 05:52:00,
2013-01-28 23:54:00,31.6,30.4,29.50,SSW,202,12.8,12.8,95,0.00,,,0.04,VWS V14.01,2013-01-29 05:54:00,
2013-01-28 23:56:00,31.6,30.4,29.47,SSW,202,12.8,12.8,95,0.00,,,0.04,VWS V14.01,2013-01-29 05:56:00,
2013-01-28 23:58:00,31.5,29.9,29.47,ENE,68,0.0,4.3,94,0.00,,,0.00,VWS V14.01,2013-01-29 05:58:00,